Observation data for Panhandle on 02/16/2017      Previous  Date  Next       Current Mesonet Observations  Soil Data  Daily Summary Page  Observations in Plain Language
KPA1 160600Z 21004KT 00/M02 A3009 RMK A01 T00011021  RH  085%=      5-min Rain = 0
KPA1 160601Z 22004KT 00/M02 A3009 RMK A01 T00011021  RH  085%=      5-min Rain = 0
KPA1 160602Z 22004KT 00/M02 A3009 RMK A01 T00011021  RH  085%=      5-min Rain = 0
KPA1 160603Z 21004KT 00/M02 A3009 RMK A01 T00011021  RH  085%=      5-min Rain = 0
KPA1 160604Z 21004KT 00/M02 A3009 RMK A01 T00011021  RH  085%=      5-min Rain = 0
KPA1 160605Z 22004KT 00/M02 A3009 RMK A01 T00011021  RH  085%=      5-min Rain = 0
KPA1 160606Z 22003KT 00/M02 A3009 RMK A01 T00011021  RH  085%=      5-min Rain = 0
KPA1 160607Z 22003KT 00/M02 A3009 RMK A01 T00011022  RH  085%=      5-min Rain = 0
KPA1 160608Z 22003KT 00/M02 A3009 RMK A01 T00011022  RH  085%=      5-min Rain = 0
KPA1 160609Z 22003KT 00/02 A3009 RMK A01 T00000-22  RH  085%=      5-min Rain = 0
KPA1 160610Z 22003KT 00/02 A3009 RMK A01 T00-00-23  RH  085%=      5-min Rain = 0
KPA1 160611Z 22003KT 00/02 A3009 RMK A01 T00000-22  RH  085%=      5-min Rain = 0
KPA1 160612Z 22004KT 00/02 A3009 RMK A01 T00-00-22  RH  085%=      5-min Rain = 0
KPA1 160613Z 22004KT M00/M02 A3009 RMK A01 T10011023  RH  085%=      5-min Rain = 0
KPA1 160614Z 22004KT M00/M02 A3009 RMK A01 T10011023  RH  085%=      5-min Rain = 0
KPA1 160615Z 22004KT M00/M02 A3009 RMK A01 T10021023  RH  085%=      5-min Rain = 0
KPA1 160616Z 21005KT M00/M02 A3009 RMK A01 T10021023  RH  086%=      5-min Rain = 0
KPA1 160617Z 22005KT M00/M02 A3009 RMK A01 T10031024  RH  086%=      5-min Rain = 0
KPA1 160618Z 22006KT M00/M03 A3009 RMK A01 T10041025  RH  086%=      5-min Rain = 0
KPA1 160619Z 22006KT M01/M03 A3008 RMK A01 T10051026  RH  086%=      5-min Rain = 0
KPA1 160620Z 22006KT M01/M03 A3008 RMK A01 T10061026  RH  086%=      5-min Rain = 0
KPA1 160621Z 22006KT M01/M03 A3008 RMK A01 T10061026  RH  086%=      5-min Rain = 0
KPA1 160622Z 22006KT M01/M03 A3008 RMK A01 T10061026  RH  087%=      5-min Rain = 0
KPA1 160623Z 22006KT M01/M03 A3008 RMK A01 T10061025  RH  087%=      5-min Rain = 0
KPA1 160624Z 22006KT M01/M02 A3008 RMK A01 T10061024  RH  088%=      5-min Rain = 0
KPA1 160625Z 22006KT M01/M02 A3008 RMK A01 T10061024  RH  088%=      5-min Rain = 0
KPA1 160626Z 22006KT M01/M02 A3008 RMK A01 T10061023  RH  088%=      5-min Rain = 0
KPA1 160627Z 22006KT M01/M02 A3008 RMK A01 T10061023  RH  088%=      5-min Rain = 0
KPA1 160628Z 22006KT M01/M02 A3008 RMK A01 T10061023  RH  088%=      5-min Rain = 0
KPA1 160629Z 22006KT M01/M02 A3008 RMK A01 T10061023  RH  088%=      5-min Rain = 0
KPA1 160630Z 21006KT M01/M02 A3008 RMK A01 T10061023  RH  088%=      5-min Rain = 0
KPA1 160631Z 21006KT M01/M02 A3008 RMK A01 T10051023  RH  088%=      5-min Rain = 0
KPA1 160632Z 21006KT M01/M02 A3008 RMK A01 T10051022  RH  088%=      5-min Rain = 0
KPA1 160633Z 21006KT M01/M02 A3008 RMK A01 T10051022  RH  088%=      5-min Rain = 0
KPA1 160634Z 22006KT M00/M02 A3008 RMK A01 T10041023  RH  088%=      5-min Rain = 0
KPA1 160635Z 22006KT M01/M02 A3008 RMK A01 T10051023  RH  088%=      5-min Rain = 0
KPA1 160636Z 22006KT M01/M02 A3008 RMK A01 T10051023  RH  087%=      5-min Rain = 0
KPA1 160637Z 22006KT M01/M02 A3008 RMK A01 T10051023  RH  087%=      5-min Rain = 0
KPA1 160638Z 22005KT M01/M02 A3008 RMK A01 T10051023  RH  087%=      5-min Rain = 0
KPA1 160639Z 22005KT M00/M02 A3008 RMK A01 T10041023  RH  087%=      5-min Rain = 0
KPA1 160640Z 22005KT M01/M02 A3008 RMK A01 T10051023  RH  087%=      5-min Rain = 0
KPA1 160641Z 22005KT M01/M02 A3008 RMK A01 T10051023  RH  087%=      5-min Rain = 0
KPA1 160642Z 22006KT M01/M02 A3008 RMK A01 T10051023  RH  087%=      5-min Rain = 0
KPA1 160643Z 22006KT M01/M02 A3008 RMK A01 T10051023  RH  088%=      5-min Rain = 0
KPA1 160644Z 22006KT M01/M02 A3008 RMK A01 T10051023  RH  088%=      5-min Rain = 0
KPA1 160645Z 22006KT M01/M02 A3008 RMK A01 T10061024  RH  088%=      5-min Rain = 0
KPA1 160646Z 22006KT M01/M02 A3008 RMK A01 T10061024  RH  088%=      5-min Rain = 0
KPA1 160647Z 22006KT M01/M02 A3008 RMK A01 T10061024  RH  088%=      5-min Rain = 0
KPA1 160648Z 22007KT M01/M02 A3008 RMK A01 T10061024  RH  088%=      5-min Rain = 0
KPA1 160649Z 22006KT M01/M02 A3008 RMK A01 T10061024  RH  088%=      5-min Rain = 0
KPA1 160650Z 22006KT M01/M02 A3008 RMK A01 T10061023  RH  088%=      5-min Rain = 0
KPA1 160651Z 22006KT M01/M02 A3008 RMK A01 T10061023  RH  088%=      5-min Rain = 0
KPA1 160652Z 22006KT M01/M02 A3008 RMK A01 T10051022  RH  088%=      5-min Rain = 0
KPA1 160653Z 22006KT M01/M02 A3008 RMK A01 T10051022  RH  088%=      5-min Rain = 0
KPA1 160654Z 21006KT M00/M02 A3008 RMK A01 T10041021  RH  088%=      5-min Rain = 0
KPA1 160655Z 21007KT M00/M02 A3007 RMK A01 T10031021  RH  088%=      5-min Rain = 0
KPA1 160656Z 21007KT M00/M02 A3007 RMK A01 T10031021  RH  088%=      5-min Rain = 0
KPA1 160657Z 21007KT M00/M02 A3007 RMK A01 T10031021  RH  087%=      5-min Rain = 0
KPA1 160658Z 22007KT M00/M02 A3007 RMK A01 T10031021  RH  087%=      5-min Rain = 0
KPA1 160659Z 22007KT M00/M02 A3007 RMK A01 T10021021  RH  087%=      5-min Rain = 0
KPA1 160700Z 22007KT M00/M02 A3007 RMK A01 T10011020  RH  087%=      5-min Rain = 0
KPA1 160701Z 22007KT M00/M02 A3007 RMK A01 T10011020  RH  087%=      5-min Rain = 0
KPA1 160702Z 22007KT 00/M02 A3007 RMK A01 T00011019  RH  086%=      5-min Rain = 0
KPA1 160703Z 22007KT 00/M02 A3007 RMK A01 T00021019  RH  086%=      5-min Rain = 0
KPA1 160704Z 22007KT 00/M02 A3007 RMK A01 T00011020  RH  086%=      5-min Rain = 0
KPA1 160705Z 22007KT 00/M02 A3007 RMK A01 T00021020  RH  085%=      5-min Rain = 0
KPA1 160706Z 22007KT 00/M02 A3007 RMK A01 T00021020  RH  085%=      5-min Rain = 0
KPA1 160707Z 22007KT 00/M02 A3007 RMK A01 T00021020  RH  085%=      5-min Rain = 0
KPA1 160708Z 22007KT 00/M02 A3007 RMK A01 T00011021  RH  085%=      5-min Rain = 0
KPA1 160709Z 22007KT 00/M02 A3007 RMK A01 T00021020  RH  085%=      5-min Rain = 0
KPA1 160710Z 22007KT 00/M02 A3007 RMK A01 T00021020  RH  085%=      5-min Rain = 0
KPA1 160711Z 22007KT 00/M02 A3007 RMK A01 T00021021  RH  085%=      5-min Rain = 0
KPA1 160712Z 22007KT 00/M02 A3007 RMK A01 T00021021  RH  085%=      5-min Rain = 0
KPA1 160713Z 22007KT 00/M02 A3007 RMK A01 T00021021  RH  085%=      5-min Rain = 0
KPA1 160714Z 22007KT 00/M02 A3007 RMK A01 T00021021  RH  085%=      5-min Rain = 0
KPA1 160715Z 22007KT 00/M02 A3007 RMK A01 T00021021  RH  085%=      5-min Rain = 0
KPA1 160716Z 22006KT 00/M02 A3007 RMK A01 T00021021  RH  085%=      5-min Rain = 0
KPA1 160717Z 22006KT 00/M02 A3007 RMK A01 T00021021  RH  085%=      5-min Rain = 0
KPA1 160718Z 22005KT 00/M02 A3007 RMK A01 T00011022  RH  085%=      5-min Rain = 0
KPA1 160719Z 22005KT 00/02 A3007 RMK A01 T00000-22  RH  085%=      5-min Rain = 0
KPA1 160720Z 22005KT 00/02 A3007 RMK A01 T00-00-22  RH  085%=      5-min Rain = 0
KPA1 160721Z 22005KT M00/M02 A3007 RMK A01 T10011022  RH  085%=      5-min Rain = 0
KPA1 160722Z 22006KT 00/02 A3007 RMK A01 T00-00-22  RH  085%=      5-min Rain = 0
KPA1 160723Z 22006KT M00/M02 A3007 RMK A01 T10011022  RH  085%=      5-min Rain = 0
KPA1 160724Z 22006KT M00/M02 A3007 RMK A01 T10011022  RH  085%=      5-min Rain = 0
KPA1 160725Z 22006KT M00/M02 A3007 RMK A01 T10011022  RH  085%=      5-min Rain = 0
KPA1 160726Z 22006KT M00/M02 A3007 RMK A01 T10011022  RH  085%=      5-min Rain = 0
KPA1 160727Z 22006KT 00/02 A3007 RMK A01 T00-00-22  RH  085%=      5-min Rain = 0
KPA1 160728Z 22006KT M00/M02 A3006 RMK A01 T10011022  RH  085%=      5-min Rain = 0
KPA1 160729Z 22006KT M00/M02 A3006 RMK A01 T10011022  RH  085%=      5-min Rain = 0
KPA1 160730Z 22006KT M00/M02 A3006 RMK A01 T10011023  RH  085%=      5-min Rain = 0
KPA1 160731Z 22006KT M00/M02 A3006 RMK A01 T10011023  RH  086%=      5-min Rain = 0
KPA1 160732Z 22005KT M00/M02 A3006 RMK A01 T10021023  RH  086%=      5-min Rain = 0
KPA1 160733Z 22005KT M00/M02 A3006 RMK A01 T10021023  RH  086%=      5-min Rain = 0
KPA1 160734Z 22005KT M00/M02 A3006 RMK A01 T10031024  RH  086%=      5-min Rain = 0
KPA1 160735Z 22005KT M00/M02 A3006 RMK A01 T10031024  RH  086%=      5-min Rain = 0
KPA1 160736Z 22006KT M00/M02 A3006 RMK A01 T10031024  RH  086%=      5-min Rain = 0
KPA1 160737Z 22006KT M00/M02 A3006 RMK A01 T10031024  RH  086%=      5-min Rain = 0
KPA1 160738Z 22006KT M00/M02 A3006 RMK A01 T10031024  RH  086%=      5-min Rain = 0
KPA1 160739Z 22006KT M00/M02 A3006 RMK A01 T10031024  RH  086%=      5-min Rain = 0
KPA1 160740Z 22006KT M00/M02 A3006 RMK A01 T10031023  RH  086%=      5-min Rain = 0
KPA1 160741Z 22006KT M00/M02 A3006 RMK A01 T10031024  RH  086%=      5-min Rain = 0
KPA1 160742Z 22006KT M00/M02 A3006 RMK A01 T10041024  RH  086%=      5-min Rain = 0
KPA1 160743Z 22006KT M00/M02 A3006 RMK A01 T10041024  RH  086%=      5-min Rain = 0
KPA1 160744Z 22006KT M00/M03 A3006 RMK A01 T10041025  RH  086%=      5-min Rain = 0
KPA1 160745Z 22006KT M00/M03 A3006 RMK A01 T10041025  RH  086%=      5-min Rain = 0
KPA1 160746Z 22006KT M00/M02 A3006 RMK A01 T10041024  RH  086%=      5-min Rain = 0
KPA1 160747Z 22006KT M00/M03 A3006 RMK A01 T10041025  RH  086%=      5-min Rain = 0
KPA1 160748Z 22006KT M00/M03 A3006 RMK A01 T10041025  RH  086%=      5-min Rain = 0
KPA1 160749Z 22006KT M00/M03 A3006 RMK A01 T10041025  RH  086%=      5-min Rain = 0
KPA1 160750Z 22006KT M00/M03 A3006 RMK A01 T10041025  RH  086%=      5-min Rain = 0
KPA1 160751Z 22007KT M00/M03 A3006 RMK A01 T10041025  RH  085%=      5-min Rain = 0
KPA1 160752Z 22006KT M00/M03 A3006 RMK A01 T10031025  RH  085%=      5-min Rain = 0
KPA1 160753Z 21006KT M00/M03 A3006 RMK A01 T10031025  RH  085%=      5-min Rain = 0
KPA1 160754Z 22006KT M00/M03 A3006 RMK A01 T10031025  RH  085%=      5-min Rain = 0
KPA1 160755Z 22007KT M00/M03 A3006 RMK A01 T10031026  RH  085%=      5-min Rain = 0
KPA1 160756Z 22006KT M00/M03 A3006 RMK A01 T10031026  RH  085%=      5-min Rain = 0
KPA1 160757Z 21006KT M00/M03 A3006 RMK A01 T10031025  RH  085%=      5-min Rain = 0
KPA1 160758Z 21006KT M00/M03 A3006 RMK A01 T10031025  RH  085%=      5-min Rain = 0
KPA1 160759Z 22006KT M00/M03 A3006 RMK A01 T10031025  RH  085%=      5-min Rain = 0
KPA1 160800Z 22006KT M00/M03 A3006 RMK A01 T10031026  RH  085%=      5-min Rain = 0
KPA1 160801Z 22006KT M00/M03 A3006 RMK A01 T10031026  RH  085%=      5-min Rain = 0
KPA1 160802Z 22006KT M00/M03 A3006 RMK A01 T10031026  RH  085%=      5-min Rain = 0
KPA1 160803Z 22006KT M00/M03 A3006 RMK A01 T10021025  RH  084%=      5-min Rain = 0
KPA1 160804Z 22006KT M00/M03 A3006 RMK A01 T10021025  RH  084%=      5-min Rain = 0
KPA1 160805Z 22006KT M00/M03 A3006 RMK A01 T10021025  RH  084%=      5-min Rain = 0
KPA1 160806Z 22006KT M00/M03 A3006 RMK A01 T10021025  RH  084%=      5-min Rain = 0
KPA1 160807Z 22006KT M00/M03 A3005 RMK A01 T10021025  RH  084%=      5-min Rain = 0
KPA1 160808Z 22006KT M00/M03 A3005 RMK A01 T10021026  RH  084%=      5-min Rain = 0
KPA1 160809Z 22006KT M00/M03 A3005 RMK A01 T10011026  RH  084%=      5-min Rain = 0
KPA1 160810Z 22006KT M00/M03 A3005 RMK A01 T10011025  RH  084%=      5-min Rain = 0
KPA1 160811Z 22006KT 00/03 A3005 RMK A01 T00-00-25  RH  083%=      5-min Rain = 0
KPA1 160812Z 22006KT 00/03 A3005 RMK A01 T00000-25  RH  083%=      5-min Rain = 0
KPA1 160813Z 22007KT 00/03 A3005 RMK A01 T00000-25  RH  083%=      5-min Rain = 0
KPA1 160814Z 22007KT 00/M02 A3005 RMK A01 T00011024  RH  083%=      5-min Rain = 0
KPA1 160815Z 22007KT 00/M02 A3005 RMK A01 T00011024  RH  083%=      5-min Rain = 0
KPA1 160816Z 22007KT 00/M02 A3005 RMK A01 T00011024  RH  083%=      5-min Rain = 0
KPA1 160817Z 22007KT 00/M02 A3005 RMK A01 T00011024  RH  083%=      5-min Rain = 0
KPA1 160818Z 22007KT 00/M02 A3005 RMK A01 T00011024  RH  083%=      5-min Rain = 0
KPA1 160819Z 22007KT 00/M03 A3005 RMK A01 T00011025  RH  083%=      5-min Rain = 0
KPA1 160820Z 22007KT 00/03 A3005 RMK A01 T00000-25  RH  083%=      5-min Rain = 0
KPA1 160821Z 22007KT 00/03 A3005 RMK A01 T00000-25  RH  083%=      5-min Rain = 0
KPA1 160822Z 22007KT 00/03 A3005 RMK A01 T00000-25  RH  083%=      5-min Rain = 0
KPA1 160823Z 22007KT 00/03 A3005 RMK A01 T00000-25  RH  083%=      5-min Rain = 0
KPA1 160824Z 22007KT 00/03 A3005 RMK A01 T00000-25  RH  083%=      5-min Rain = 0
KPA1 160825Z 22007KT 00/03 A3005 RMK A01 T00000-25  RH  083%=      5-min Rain = 0
KPA1 160826Z 22006KT 00/03 A3005 RMK A01 T00000-25  RH  083%=      5-min Rain = 0
KPA1 160827Z 22007KT M00/M03 A3005 RMK A01 T10011026  RH  083%=      5-min Rain = 0
KPA1 160828Z 22007KT M00/M03 A3005 RMK A01 T10011026  RH  083%=      5-min Rain = 0
KPA1 160829Z 22007KT M00/M03 A3005 RMK A01 T10011026  RH  084%=      5-min Rain = 0
KPA1 160830Z 22007KT M00/M03 A3005 RMK A01 T10021026  RH  084%=      5-min Rain = 0
KPA1 160831Z 22007KT M00/M03 A3005 RMK A01 T10021026  RH  084%=      5-min Rain = 0
KPA1 160832Z 22007KT M00/M03 A3005 RMK A01 T10021026  RH  084%=      5-min Rain = 0
KPA1 160833Z 22007KT M00/M03 A3005 RMK A01 T10021026  RH  084%=      5-min Rain = 0
KPA1 160834Z 22007KT M00/M03 A3005 RMK A01 T10021026  RH  084%=      5-min Rain = 0
KPA1 160835Z 22007KT M00/M03 A3005 RMK A01 T10021026  RH  084%=      5-min Rain = 0
KPA1 160836Z 22007KT M00/M03 A3005 RMK A01 T10031027  RH  084%=      5-min Rain = 0
KPA1 160837Z 22007KT M00/M03 A3005 RMK A01 T10031026  RH  084%=      5-min Rain = 0
KPA1 160838Z 22007KT M00/M03 A3005 RMK A01 T10031026  RH  084%=      5-min Rain = 0
KPA1 160839Z 22007KT M00/M03 A3005 RMK A01 T10031026  RH  084%=      5-min Rain = 0
KPA1 160840Z 22007KT M00/M03 A3005 RMK A01 T10031026  RH  084%=      5-min Rain = 0
KPA1 160841Z 22007KT M00/M03 A3005 RMK A01 T10031026  RH  084%=      5-min Rain = 0
KPA1 160842Z 22007KT M00/M03 A3005 RMK A01 T10031026  RH  084%=      5-min Rain = 0
KPA1 160843Z 22008KT M00/M03 A3005 RMK A01 T10031025  RH  085%=      5-min Rain = 0
KPA1 160844Z 22008KT M00/M03 A3005 RMK A01 T10031026  RH  085%=      5-min Rain = 0
KPA1 160845Z 22007KT M00/M03 A3005 RMK A01 T10031025  RH  085%=      5-min Rain = 0
KPA1 160846Z 22007KT M00/M03 A3005 RMK A01 T10021025  RH  085%=      5-min Rain = 0
KPA1 160847Z 22008KT M00/M03 A3005 RMK A01 T10021025  RH  085%=      5-min Rain = 0
KPA1 160848Z 22008KT M00/M03 A3005 RMK A01 T10021025  RH  085%=      5-min Rain = 0
KPA1 160849Z 22008KT M00/M03 A3005 RMK A01 T10021025  RH  085%=      5-min Rain = 0
KPA1 160850Z 23007KT M00/M03 A3004 RMK A01 T10021025  RH  085%=      5-min Rain = 0
KPA1 160851Z 23007KT M00/M03 A3004 RMK A01 T10021025  RH  085%=      5-min Rain = 0
KPA1 160852Z 23007KT M00/M03 A3004 RMK A01 T10021025  RH  085%=      5-min Rain = 0
KPA1 160853Z 23007KT M00/M02 A3004 RMK A01 T10021024  RH  085%=      5-min Rain = 0
KPA1 160854Z 23007KT M00/M02 A3004 RMK A01 T10021024  RH  085%=      5-min Rain = 0
KPA1 160855Z 23006KT M00/M03 A3004 RMK A01 T10021025  RH  085%=      5-min Rain = 0
KPA1 160856Z 23007KT M00/M02 A3004 RMK A01 T10021024  RH  085%=      5-min Rain = 0
KPA1 160857Z 23007KT M00/M03 A3004 RMK A01 T10021025  RH  085%=      5-min Rain = 0
KPA1 160858Z 23007KT M00/M03 A3004 RMK A01 T10021025  RH  085%=      5-min Rain = 0
KPA1 160859Z 23007KT M00/M03 A3004 RMK A01 T10031025  RH  085%=      5-min Rain = 0
KPA1 160900Z 23006KT M00/M03 A3004 RMK A01 T10031026  RH  085%=      5-min Rain = 0
KPA1 160901Z 24006KT M00/M03 A3004 RMK A01 T10031026  RH  085%=      5-min Rain = 0
KPA1 160902Z 24006KT M00/M03 A3004 RMK A01 T10031026  RH  085%=      5-min Rain = 0
KPA1 160903Z 24006KT M00/M03 A3004 RMK A01 T10031026  RH  085%=      5-min Rain = 0
KPA1 160904Z 25006KT M00/M03 A3004 RMK A01 T10031026  RH  085%=      5-min Rain = 0
KPA1 160905Z 25005KT M00/M03 A3004 RMK A01 T10031026  RH  085%=      5-min Rain = 0
KPA1 160906Z 25006KT M00/M03 A3004 RMK A01 T10031026  RH  084%=      5-min Rain = 0
KPA1 160907Z 25006KT M00/M03 A3004 RMK A01 T10041027  RH  084%=      5-min Rain = 0
KPA1 160908Z 25006KT M00/M03 A3004 RMK A01 T10041028  RH  084%=      5-min Rain = 0
KPA1 160909Z 25006KT M00/M03 A3004 RMK A01 T10041027  RH  084%=      5-min Rain = 0
KPA1 160910Z 25007KT M00/M03 A3004 RMK A01 T10031027  RH  084%=      5-min Rain = 0
KPA1 160911Z 25007KT M00/M03 A3004 RMK A01 T10031027  RH  084%=      5-min Rain = 0
KPA1 160912Z 25007KT M00/M03 A3004 RMK A01 T10021027  RH  084%=      5-min Rain = 0
KPA1 160913Z 25006KT M00/M03 A3004 RMK A01 T10021027  RH  084%=      5-min Rain = 0
KPA1 160914Z 25007KT M00/M03 A3004 RMK A01 T10021027  RH  083%=      5-min Rain = 0
KPA1 160915Z 25007KT M00/M03 A3004 RMK A01 T10021028  RH  083%=      5-min Rain = 0
KPA1 160916Z 25007KT M00/M03 A3004 RMK A01 T10021028  RH  083%=      5-min Rain = 0
KPA1 160917Z 25007KT M00/M03 A3003 RMK A01 T10031028  RH  083%=      5-min Rain = 0
KPA1 160918Z 25007KT M00/M03 A3003 RMK A01 T10031028  RH  083%=      5-min Rain = 0
KPA1 160919Z 24007KT M00/M03 A3003 RMK A01 T10031028  RH  083%=      5-min Rain = 0
KPA1 160920Z 24007KT M00/M03 A3003 RMK A01 T10031029  RH  083%=      5-min Rain = 0
KPA1 160921Z 24007KT M00/M03 A3003 RMK A01 T10031029  RH  083%=      5-min Rain = 0
KPA1 160922Z 24007KT M00/M03 A3003 RMK A01 T10031029  RH  083%=      5-min Rain = 0
KPA1 160923Z 24006KT M00/M03 A3003 RMK A01 T10041030  RH  083%=      5-min Rain = 0
KPA1 160924Z 24006KT M01/M03 A3003 RMK A01 T10051031  RH  083%=      5-min Rain = 0
KPA1 160925Z 24006KT M01/M03 A3003 RMK A01 T10061031  RH  083%=      5-min Rain = 0
KPA1 160926Z 23006KT M01/M03 A3003 RMK A01 T10061032  RH  083%=      5-min Rain = 0
KPA1 160927Z 23006KT M01/M03 A3003 RMK A01 T10061031  RH  084%=      5-min Rain = 0
KPA1 160928Z 23007KT M01/M03 A3003 RMK A01 T10071031  RH  084%=      5-min Rain = 0
KPA1 160929Z 24006KT M01/M03 A3003 RMK A01 T10071031  RH  084%=      5-min Rain = 0
KPA1 160930Z 24006KT M01/M03 A3003 RMK A01 T10071030  RH  084%=      5-min Rain = 0
KPA1 160931Z 24006KT M01/M03 A3003 RMK A01 T10061030  RH  084%=      5-min Rain = 0
KPA1 160932Z 24006KT M01/M03 A3003 RMK A01 T10061029  RH  084%=      5-min Rain = 0
KPA1 160933Z 24005KT M01/M03 A3003 RMK A01 T10061030  RH  084%=      5-min Rain = 0
KPA1 160934Z 24005KT M01/M03 A3003 RMK A01 T10061030  RH  084%=      5-min Rain = 0
KPA1 160935Z 24005KT M01/M03 A3003 RMK A01 T10071032  RH  084%=      5-min Rain = 0
KPA1 160936Z 24006KT M01/M03 A3003 RMK A01 T10081032  RH  084%=      5-min Rain = 0
KPA1 160937Z 24005KT M01/M03 A3003 RMK A01 T10091032  RH  084%=      5-min Rain = 0
KPA1 160938Z 24006KT M01/M03 A3003 RMK A01 T10091032  RH  084%=      5-min Rain = 0
KPA1 160939Z 24006KT M01/M03 A3003 RMK A01 T10091032  RH  085%=      5-min Rain = 0
KPA1 160940Z 24006KT M01/M03 A3003 RMK A01 T10091032  RH  085%=      5-min Rain = 0
KPA1 160941Z 24006KT M01/M03 A3003 RMK A01 T10091032  RH  085%=      5-min Rain = 0
KPA1 160942Z 24006KT M01/M03 A3003 RMK A01 T10101032  RH  085%=      5-min Rain = 0
KPA1 160943Z 24006KT M01/M03 A3003 RMK A01 T10101032  RH  085%=      5-min Rain = 0
KPA1 160944Z 24006KT M01/M03 A3003 RMK A01 T10101032  RH  085%=      5-min Rain = 0
KPA1 160945Z 24006KT M01/M03 A3003 RMK A01 T10101032  RH  085%=      5-min Rain = 0
KPA1 160946Z 24006KT M01/M03 A3003 RMK A01 T10101032  RH  085%=      5-min Rain = 0
KPA1 160947Z 24006KT M01/M03 A3003 RMK A01 T10101032  RH  085%=      5-min Rain = 0
KPA1 160948Z 24007KT M01/M03 A3003 RMK A01 T10111032  RH  085%=      5-min Rain = 0
KPA1 160949Z 24006KT M01/M03 A3003 RMK A01 T10101032  RH  085%=      5-min Rain = 0
KPA1 160950Z 24006KT M01/M03 A3003 RMK A01 T10101032  RH  085%=      5-min Rain = 0
KPA1 160951Z 24006KT M01/M03 A3003 RMK A01 T10101032  RH  085%=      5-min Rain = 0
KPA1 160952Z 24006KT M01/M03 A3003 RMK A01 T10101033  RH  085%=      5-min Rain = 0
KPA1 160953Z 24006KT M01/M03 A3003 RMK A01 T10111033  RH  085%=      5-min Rain = 0
KPA1 160954Z 24006KT M01/M03 A3003 RMK A01 T10111033  RH  085%=      5-min Rain = 0
KPA1 160955Z 24006KT M01/M03 A3003 RMK A01 T10111033  RH  085%=      5-min Rain = 0
KPA1 160956Z 24006KT M01/M03 A3003 RMK A01 T10111033  RH  085%=      5-min Rain = 0
KPA1 160957Z 24006KT M01/M03 A3003 RMK A01 T10111033  RH  085%=      5-min Rain = 0
KPA1 160958Z 24006KT M01/M03 A3003 RMK A01 T10111033  RH  085%=      5-min Rain = 0
KPA1 160959Z 24006KT M01/M03 A3003 RMK A01 T10111034  RH  084%=      5-min Rain = 0
KPA1 161000Z 24006KT M01/M04 A3003 RMK A01 T10111035  RH  084%=      5-min Rain = 0
KPA1 161001Z 24006KT M01/M03 A3003 RMK A01 T10111034  RH  084%=      5-min Rain = 0
KPA1 161002Z 25006KT M01/M03 A3003 RMK A01 T10101034  RH  084%=      5-min Rain = 0
KPA1 161003Z 24006KT M01/M03 A3003 RMK A01 T10091034  RH  083%=      5-min Rain = 0
KPA1 161004Z 24006KT M01/M03 A3003 RMK A01 T10091034  RH  083%=      5-min Rain = 0
KPA1 161005Z 24006KT M01/M03 A3003 RMK A01 T10081033  RH  083%=      5-min Rain = 0
KPA1 161006Z 24006KT M01/M03 A3003 RMK A01 T10081034  RH  082%=      5-min Rain = 0
KPA1 161007Z 24006KT M01/M03 A3003 RMK A01 T10081034  RH  082%=      5-min Rain = 0
KPA1 161008Z 24006KT M01/M04 A3003 RMK A01 T10081035  RH  082%=      5-min Rain = 0
KPA1 161009Z 24006KT M01/M04 A3003 RMK A01 T10081035  RH  082%=      5-min Rain = 0
KPA1 161010Z 24006KT M01/M04 A3003 RMK A01 T10081035  RH  082%=      5-min Rain = 0
KPA1 161011Z 24006KT M01/M04 A3003 RMK A01 T10081035  RH  082%=      5-min Rain = 0
KPA1 161012Z 24006KT M01/M04 A3003 RMK A01 T10081035  RH  082%=      5-min Rain = 0
KPA1 161013Z 25006KT M01/M03 A3003 RMK A01 T10071034  RH  082%=      5-min Rain = 0
KPA1 161014Z 25006KT M01/M03 A3003 RMK A01 T10071034  RH  082%=      5-min Rain = 0
KPA1 161015Z 24007KT M01/M03 A3003 RMK A01 T10071034  RH  082%=      5-min Rain = 0
KPA1 161016Z 24007KT M01/M03 A3003 RMK A01 T10061034  RH  082%=      5-min Rain = 0
KPA1 161017Z 24007KT M01/M03 A3003 RMK A01 T10061034  RH  081%=      5-min Rain = 0
KPA1 161018Z 24007KT M01/M03 A3003 RMK A01 T10061034  RH  082%=      5-min Rain = 0
KPA1 161019Z 24006KT M01/M03 A3002 RMK A01 T10071034  RH  082%=      5-min Rain = 0
KPA1 161020Z 24006KT M01/M03 A3002 RMK A01 T10071034  RH  082%=      5-min Rain = 0
KPA1 161021Z 24006KT M01/M03 A3002 RMK A01 T10071034  RH  082%=      5-min Rain = 0
KPA1 161022Z 24006KT M01/M03 A3002 RMK A01 T10081034  RH  082%=      5-min Rain = 0
KPA1 161023Z 24005KT M01/M03 A3002 RMK A01 T10081034  RH  083%=      5-min Rain = 0
KPA1 161024Z 24006KT M01/M03 A3002 RMK A01 T10091034  RH  083%=      5-min Rain = 0
KPA1 161025Z 23006KT M01/M03 A3002 RMK A01 T10101034  RH  084%=      5-min Rain = 0
KPA1 161026Z 23006KT M01/M03 A3002 RMK A01 T10101033  RH  084%=      5-min Rain = 0
KPA1 161027Z 23006KT M01/M03 A3002 RMK A01 T10101034  RH  084%=      5-min Rain = 0
KPA1 161028Z 24006KT M01/M03 A3002 RMK A01 T10101034  RH  084%=      5-min Rain = 0
KPA1 161029Z 24007KT M01/M03 A3002 RMK A01 T10091034  RH  084%=      5-min Rain = 0
KPA1 161030Z 24007KT M01/M03 A3002 RMK A01 T10091033  RH  084%=      5-min Rain = 0
KPA1 161031Z 24006KT M01/M03 A3002 RMK A01 T10091034  RH  083%=      5-min Rain = 0
KPA1 161032Z 24006KT M01/M03 A3002 RMK A01 T10091033  RH  083%=      5-min Rain = 0
KPA1 161033Z 24006KT M01/M03 A3002 RMK A01 T10071032  RH  083%=      5-min Rain = 0
KPA1 161034Z 24006KT M01/M03 A3002 RMK A01 T10071033  RH  083%=      5-min Rain = 0
KPA1 161035Z 24006KT M01/M03 A3002 RMK A01 T10071033  RH  083%=      5-min Rain = 0
KPA1 161036Z 24005KT M01/M03 A3002 RMK A01 T10071033  RH  082%=      5-min Rain = 0
KPA1 161037Z 24006KT M01/M03 A3002 RMK A01 T10071034  RH  082%=      5-min Rain = 0
KPA1 161038Z 24006KT M01/M03 A3002 RMK A01 T10071034  RH  082%=      5-min Rain = 0
KPA1 161039Z 24006KT M01/M03 A3002 RMK A01 T10071034  RH  082%=      5-min Rain = 0
KPA1 161040Z 24006KT M01/M03 A3002 RMK A01 T10061034  RH  082%=      5-min Rain = 0
KPA1 161041Z 24006KT M01/M03 A3002 RMK A01 T10061034  RH  081%=      5-min Rain = 0
KPA1 161042Z 24005KT M01/M03 A3002 RMK A01 T10061034  RH  081%=      5-min Rain = 0
KPA1 161043Z 23005KT M01/M03 A3002 RMK A01 T10061034  RH  081%=      5-min Rain = 0
KPA1 161044Z 23005KT M01/M03 A3002 RMK A01 T10061034  RH  081%=      5-min Rain = 0
KPA1 161045Z 23005KT M01/M03 A3002 RMK A01 T10061034  RH  081%=      5-min Rain = 0
KPA1 161046Z 23004KT M01/M03 A3002 RMK A01 T10061033  RH  082%=      5-min Rain = 0
KPA1 161047Z 23004KT M01/M03 A3002 RMK A01 T10061032  RH  082%=      5-min Rain = 0
KPA1 161048Z 23004KT M01/M03 A3002 RMK A01 T10051031  RH  082%=      5-min Rain = 0
KPA1 161049Z 22004KT M00/M03 A3002 RMK A01 T10041030  RH  082%=      5-min Rain = 0
KPA1 161050Z 22004KT M00/M03 A3002 RMK A01 T10021029  RH  082%=      5-min Rain = 0
KPA1 161051Z 22004KT M00/M03 A3002 RMK A01 T10021029  RH  082%=      5-min Rain = 0
KPA1 161052Z 22004KT M00/M03 A3002 RMK A01 T10011030  RH  081%=      5-min Rain = 0
KPA1 161053Z 22004KT M00/M03 A3002 RMK A01 T10011031  RH  080%=      5-min Rain = 0
KPA1 161054Z 21004KT M00/M03 A3002 RMK A01 T10021032  RH  080%=      5-min Rain = 0
KPA1 161055Z 21004KT M00/M03 A3002 RMK A01 T10031033  RH  080%=      5-min Rain = 0
KPA1 161056Z 21004KT M00/M03 A3002 RMK A01 T10031033  RH  080%=      5-min Rain = 0
KPA1 161057Z 22004KT M00/M03 A3002 RMK A01 T10031032  RH  081%=      5-min Rain = 0
KPA1 161058Z 22004KT M00/M03 A3002 RMK A01 T10031033  RH  081%=      5-min Rain = 0
KPA1 161059Z 22004KT M00/M03 A3001 RMK A01 T10031033  RH  080%=      5-min Rain = 0
KPA1 161100Z 22004KT M00/M03 A3001 RMK A01 T10041033  RH  081%=      5-min Rain = 0
KPA1 161101Z 22004KT M00/M03 A3001 RMK A01 T10041033  RH  081%=      5-min Rain = 0
KPA1 161102Z 22004KT M00/M03 A3001 RMK A01 T10041034  RH  080%=      5-min Rain = 0
KPA1 161103Z 22004KT M01/M03 A3001 RMK A01 T10051034  RH  081%=      5-min Rain = 0
KPA1 161104Z 22005KT M01/M04 A3001 RMK A01 T10061035  RH  081%=      5-min Rain = 0
KPA1 161105Z 22005KT M01/M03 A3001 RMK A01 T10071034  RH  082%=      5-min Rain = 0
KPA1 161106Z 22004KT M01/M03 A3001 RMK A01 T10071034  RH  082%=      5-min Rain = 0
KPA1 161107Z 22005KT M01/M03 A3001 RMK A01 T10081034  RH  082%=      5-min Rain = 0
KPA1 161108Z 22005KT M01/M03 A3001 RMK A01 T10081034  RH  083%=      5-min Rain = 0
KPA1 161109Z 22005KT M01/M03 A3001 RMK A01 T10091034  RH  083%=      5-min Rain = 0
KPA1 161110Z 23005KT M01/M04 A3001 RMK A01 T10091035  RH  083%=      5-min Rain = 0
KPA1 161111Z 23005KT M01/M04 A3001 RMK A01 T10101035  RH  083%=      5-min Rain = 0
KPA1 161112Z 23006KT M01/M04 A3001 RMK A01 T10101035  RH  083%=      5-min Rain = 0
KPA1 161113Z 23006KT M01/M04 A3001 RMK A01 T10101035  RH  083%=      5-min Rain = 0
KPA1 161114Z 23006KT M01/M04 A3001 RMK A01 T10111035  RH  084%=      5-min Rain = 0
KPA1 161115Z 22006KT M01/M04 A3001 RMK A01 T10111035  RH  084%=      5-min Rain = 0
KPA1 161116Z 23006KT M01/M04 A3001 RMK A01 T10121036  RH  084%=      5-min Rain = 0
KPA1 161117Z 23006KT M01/M04 A3001 RMK A01 T10121036  RH  084%=      5-min Rain = 0
KPA1 161118Z 23006KT M01/M04 A3001 RMK A01 T10121035  RH  084%=      5-min Rain = 0
KPA1 161119Z 23006KT M01/M04 A3001 RMK A01 T10121035  RH  084%=      5-min Rain = 0
KPA1 161120Z 23006KT M01/M04 A3001 RMK A01 T10111035  RH  084%=      5-min Rain = 0
KPA1 161121Z 23006KT M01/M03 A3001 RMK A01 T10111034  RH  084%=      5-min Rain = 0
KPA1 161122Z 23006KT M01/M03 A3001 RMK A01 T10101034  RH  084%=      5-min Rain = 0
KPA1 161123Z 23006KT M01/M03 A3001 RMK A01 T10101033  RH  084%=      5-min Rain = 0
KPA1 161124Z 24007KT M01/M03 A3001 RMK A01 T10091032  RH  084%=      5-min Rain = 0
KPA1 161125Z 24007KT M01/M03 A3001 RMK A01 T10081032  RH  084%=      5-min Rain = 0
KPA1 161126Z 24007KT M01/M03 A3001 RMK A01 T10071031  RH  084%=      5-min Rain = 0
KPA1 161127Z 23007KT M01/M03 A3001 RMK A01 T10071032  RH  083%=      5-min Rain = 0
KPA1 161128Z 23007KT M01/M03 A3001 RMK A01 T10071031  RH  083%=      5-min Rain = 0
KPA1 161129Z 23007KT M01/M03 A3001 RMK A01 T10071032  RH  083%=      5-min Rain = 0
KPA1 161130Z 23007KT M01/M03 A3001 RMK A01 T10071032  RH  083%=      5-min Rain = 0
KPA1 161131Z 24007KT M01/M03 A3001 RMK A01 T10061032  RH  083%=      5-min Rain = 0
KPA1 161132Z 23007KT M01/M03 A3001 RMK A01 T10061031  RH  083%=      5-min Rain = 0
KPA1 161133Z 24007KT M01/M03 A3001 RMK A01 T10051032  RH  083%=      5-min Rain = 0
KPA1 161134Z 24007KT M01/M03 A3001 RMK A01 T10051032  RH  082%=      5-min Rain = 0
KPA1 161135Z 24007KT M01/M03 A3001 RMK A01 T10061032  RH  082%=      5-min Rain = 0
KPA1 161136Z 24006KT M01/M03 A3001 RMK A01 T10061032  RH  083%=      5-min Rain = 0
KPA1 161137Z 24006KT M01/M03 A3001 RMK A01 T10061032  RH  082%=      5-min Rain = 0
KPA1 161138Z 24006KT M01/M03 A3001 RMK A01 T10061032  RH  082%=      5-min Rain = 0
KPA1 161139Z 24006KT M01/M03 A3001 RMK A01 T10071033  RH  082%=      5-min Rain = 0
KPA1 161140Z 24006KT M01/M03 A3001 RMK A01 T10071033  RH  082%=      5-min Rain = 0
KPA1 161141Z 24006KT M01/M03 A3001 RMK A01 T10071033  RH  083%=      5-min Rain = 0
KPA1 161142Z 24006KT M01/M03 A3001 RMK A01 T10081033  RH  083%=      5-min Rain = 0
KPA1 161143Z 24006KT M01/M03 A3001 RMK A01 T10081034  RH  083%=      5-min Rain = 0
KPA1 161144Z 24006KT M01/M03 A3001 RMK A01 T10081033  RH  083%=      5-min Rain = 0
KPA1 161145Z 24006KT M01/M03 A3001 RMK A01 T10071032  RH  083%=      5-min Rain = 0
KPA1 161146Z 24006KT M01/M03 A3001 RMK A01 T10071033  RH  083%=      5-min Rain = 0
KPA1 161147Z 24006KT M01/M03 A3001 RMK A01 T10071033  RH  083%=      5-min Rain = 0
KPA1 161148Z 24006KT M01/M03 A3001 RMK A01 T10071033  RH  083%=      5-min Rain = 0
KPA1 161149Z 24005KT M01/M03 A3001 RMK A01 T10081034  RH  083%=      5-min Rain = 0
KPA1 161150Z 24006KT M01/M03 A3001 RMK A01 T10091034  RH  083%=      5-min Rain = 0
KPA1 161151Z 24005KT M01/M04 A3001 RMK A01 T10091035  RH  083%=      5-min Rain = 0
KPA1 161152Z 24006KT M01/M04 A3001 RMK A01 T10101035  RH  083%=      5-min Rain = 0
KPA1 161153Z 24006KT M01/M03 A3001 RMK A01 T10101034  RH  083%=      5-min Rain = 0
KPA1 161154Z 24006KT M01/M03 A3001 RMK A01 T10101034  RH  084%=      5-min Rain = 0
KPA1 161155Z 24006KT M01/M03 A3001 RMK A01 T10091033  RH  084%=      5-min Rain = 0
KPA1 161156Z 23005KT M01/M03 A3001 RMK A01 T10091033  RH  084%=      5-min Rain = 0
KPA1 161157Z 23005KT M01/M03 A3001 RMK A01 T10091033  RH  083%=      5-min Rain = 0
KPA1 161158Z 23005KT M01/M03 A3001 RMK A01 T10091033  RH  084%=      5-min Rain = 0
KPA1 161159Z 23005KT M01/M03 A3001 RMK A01 T10091033  RH  084%=      5-min Rain = 0
KPA1 161200Z 23006KT M01/M03 A3001 RMK A01 T10101034  RH  084%=      5-min Rain = 0
KPA1 161201Z 23006KT M01/M03 A3001 RMK A01 T10101033  RH  084%=      5-min Rain = 0
KPA1 161202Z 23006KT M01/M03 A3001 RMK A01 T10091032  RH  084%=      5-min Rain = 0
KPA1 161203Z 23006KT M01/M03 A3001 RMK A01 T10091033  RH  084%=      5-min Rain = 0
KPA1 161204Z 23006KT M01/M03 A3001 RMK A01 T10091033  RH  084%=      5-min Rain = 0
KPA1 161205Z 23006KT M01/M03 A3001 RMK A01 T10091033  RH  084%=      5-min Rain = 0
KPA1 161206Z 23006KT M01/M03 A3001 RMK A01 T10091033  RH  083%=      5-min Rain = 0
KPA1 161207Z 23006KT M01/M03 A3001 RMK A01 T10081033  RH  083%=      5-min Rain = 0
KPA1 161208Z 23006KT M01/M03 A3001 RMK A01 T10081033  RH  083%=      5-min Rain = 0
KPA1 161209Z 23006KT M01/M03 A3001 RMK A01 T10081033  RH  083%=      5-min Rain = 0
KPA1 161210Z 23006KT M01/M03 A3001 RMK A01 T10081033  RH  083%=      5-min Rain = 0
KPA1 161211Z 23006KT M01/M03 A30 RMK A01 T10081034  RH  083%=      5-min Rain = 0
KPA1 161212Z 23006KT M01/M03 A30 RMK A01 T10081034  RH  083%=      5-min Rain = 0
KPA1 161213Z 23006KT M01/M03 A30 RMK A01 T10081034  RH  083%=      5-min Rain = 0
KPA1 161214Z 23006KT M01/M03 A30 RMK A01 T10081034  RH  083%=      5-min Rain = 0
KPA1 161215Z 23006KT M01/M03 A30 RMK A01 T10081034  RH  083%=      5-min Rain = 0
KPA1 161216Z 23006KT M01/M03 A30 RMK A01 T10081034  RH  083%=      5-min Rain = 0
KPA1 161217Z 23006KT M01/M03 A30 RMK A01 T10081034  RH  082%=      5-min Rain = 0
KPA1 161218Z 23006KT M01/M03 A30 RMK A01 T10081034  RH  083%=      5-min Rain = 0
KPA1 161219Z 23006KT M01/M03 A30 RMK A01 T10081034  RH  083%=      5-min Rain = 0
KPA1 161220Z 24006KT M01/M03 A30 RMK A01 T10081033  RH  083%=      5-min Rain = 0
KPA1 161221Z 24006KT M01/M03 A30 RMK A01 T10071032  RH  083%=      5-min Rain = 0
KPA1 161222Z 24007KT M01/M03 A30 RMK A01 T10061031  RH  083%=      5-min Rain = 0
KPA1 161223Z 23007KT M01/M03 A30 RMK A01 T10051031  RH  082%=      5-min Rain = 0
KPA1 161224Z 23007KT M01/M03 A30 RMK A01 T10051032  RH  082%=      5-min Rain = 0
KPA1 161225Z 23007KT M01/M03 A30 RMK A01 T10051032  RH  082%=      5-min Rain = 0
KPA1 161226Z 23007KT M01/M03 A30 RMK A01 T10051032  RH  082%=      5-min Rain = 0
KPA1 161227Z 23007KT M01/M03 A30 RMK A01 T10051032  RH  082%=      5-min Rain = 0
KPA1 161228Z 23007KT M01/M03 A30 RMK A01 T10051033  RH  081%=      5-min Rain = 0
KPA1 161229Z 23007KT M01/M03 A30 RMK A01 T10051033  RH  082%=      5-min Rain = 0
KPA1 161230Z 23007KT M01/M03 A30 RMK A01 T10061034  RH  082%=      5-min Rain = 0
KPA1 161231Z 23007KT M01/M03 A30 RMK A01 T10061033  RH  082%=      5-min Rain = 0
KPA1 161232Z 22006KT M01/M03 A30 RMK A01 T10051033  RH  082%=      5-min Rain = 0
KPA1 161233Z 23006KT M01/M03 A30 RMK A01 T10051032  RH  082%=      5-min Rain = 0
KPA1 161234Z 23006KT M01/M03 A30 RMK A01 T10051032  RH  082%=      5-min Rain = 0
KPA1 161235Z 23006KT M00/M03 A30 RMK A01 T10041031  RH  082%=      5-min Rain = 0
KPA1 161236Z 23006KT M00/M03 A30 RMK A01 T10041032  RH  082%=      5-min Rain = 0
KPA1 161237Z 23007KT M00/M03 A30 RMK A01 T10041032  RH  082%=      5-min Rain = 0
KPA1 161238Z 23007KT M00/M03 A30 RMK A01 T10031031  RH  081%=      5-min Rain = 0
KPA1 161239Z 23007KT M00/M03 A30 RMK A01 T10041032  RH  081%=      5-min Rain = 0
KPA1 161240Z 23007KT M00/M03 A2999 RMK A01 T10031031  RH  081%=      5-min Rain = 0
KPA1 161241Z 23008KT M00/M03 A2999 RMK A01 T10021031  RH  081%=      5-min Rain = 0
KPA1 161242Z 23008KT M00/M03 A2999 RMK A01 T10011031  RH  081%=      5-min Rain = 0
KPA1 161243Z 23007KT M00/M03 A2999 RMK A01 T10021031  RH  080%=      5-min Rain = 0
KPA1 161244Z 23008KT M00/M03 A2999 RMK A01 T10011031  RH  081%=      5-min Rain = 0
KPA1 161245Z 23008KT M00/M03 A2999 RMK A01 T10021031  RH  081%=      5-min Rain = 0
KPA1 161246Z 23008KT M00/M03 A2999 RMK A01 T10021031  RH  081%=      5-min Rain = 0
KPA1 161247Z 23008KT M00/M03 A2999 RMK A01 T10021031  RH  081%=      5-min Rain = 0
KPA1 161248Z 23008KT M00/M03 A2999 RMK A01 T10021031  RH  081%=      5-min Rain = 0
KPA1 161249Z 23008KT M00/M03 A2999 RMK A01 T10021030  RH  081%=      5-min Rain = 0
KPA1 161250Z 23008KT M00/M03 A2999 RMK A01 T10021030  RH  081%=      5-min Rain = 0
KPA1 161251Z 22008KT M00/M03 A2999 RMK A01 T10021030  RH  081%=      5-min Rain = 0
KPA1 161252Z 22007KT M00/M03 A2999 RMK A01 T10021030  RH  081%=      5-min Rain = 0
KPA1 161253Z 22008KT M00/M03 A2999 RMK A01 T10021031  RH  081%=      5-min Rain = 0
KPA1 161254Z 22007KT M00/M03 A2999 RMK A01 T10021031  RH  081%=      5-min Rain = 0
KPA1 161255Z 22007KT M00/M03 A2999 RMK A01 T10021031  RH  081%=      5-min Rain = 0
KPA1 161256Z 22007KT M00/M03 A2999 RMK A01 T10021031  RH  081%=      5-min Rain = 0
KPA1 161257Z 22007KT M00/M03 A2999 RMK A01 T10031031  RH  081%=      5-min Rain = 0
KPA1 161258Z 22007KT M00/M03 A2999 RMK A01 T10041031  RH  082%=      5-min Rain = 0
KPA1 161259Z 22007KT M00/M03 A2999 RMK A01 T10041031  RH  082%=      5-min Rain = 0
KPA1 161300Z 22008KT M00/M03 A2999 RMK A01 T10041031  RH  082%=      5-min Rain = 0
KPA1 161301Z 22009KT M00/M03 A2999 RMK A01 T10041031  RH  082%=      5-min Rain = 0
KPA1 161302Z 22009KT M00/M03 A2999 RMK A01 T10041031  RH  082%=      5-min Rain = 0
KPA1 161303Z 22009KT M00/M03 A2999 RMK A01 T10041030  RH  082%=      5-min Rain = 0
KPA1 161304Z 22009KT M00/M03 A2999 RMK A01 T10041030  RH  082%=      5-min Rain = 0
KPA1 161305Z 22008KT M00/M03 A2999 RMK A01 T10041030  RH  083%=      5-min Rain = 0
KPA1 161306Z 22008KT M00/M03 A2999 RMK A01 T10041030  RH  083%=      5-min Rain = 0
KPA1 161307Z 22008KT M00/M03 A2999 RMK A01 T10041030  RH  083%=      5-min Rain = 0
KPA1 161308Z 22008KT M01/M03 A2999 RMK A01 T10051031  RH  083%=      5-min Rain = 0
KPA1 161309Z 22008KT M01/M03 A2999 RMK A01 T10051030  RH  083%=      5-min Rain = 0
KPA1 161310Z 22008KT M01/M03 A2999 RMK A01 T10051030  RH  083%=      5-min Rain = 0
KPA1 161311Z 22007KT M01/M03 A2999 RMK A01 T10051030  RH  083%=      5-min Rain = 0
KPA1 161312Z 22007KT M01/M03 A2999 RMK A01 T10051030  RH  083%=      5-min Rain = 0
KPA1 161313Z 22007KT M01/M03 A2999 RMK A01 T10051031  RH  083%=      5-min Rain = 0
KPA1 161314Z 22007KT M01/M03 A2999 RMK A01 T10061031  RH  083%=      5-min Rain = 0
KPA1 161315Z 22006KT M01/M03 A2999 RMK A01 T10061031  RH  083%=      5-min Rain = 0
KPA1 161316Z 22006KT M01/M03 A2999 RMK A01 T10061031  RH  083%=      5-min Rain = 0
KPA1 161317Z 22006KT M01/M03 A2999 RMK A01 T10061031  RH  083%=      5-min Rain = 0
KPA1 161318Z 22006KT M01/M03 A2999 RMK A01 T10061031  RH  083%=      5-min Rain = 0
KPA1 161319Z 22006KT M01/M03 A30 RMK A01 T10061032  RH  083%=      5-min Rain = 0
KPA1 161320Z 22005KT M01/M03 A30 RMK A01 T10071033  RH  083%=      5-min Rain = 0
KPA1 161321Z 22006KT M01/M03 A30 RMK A01 T10081033  RH  083%=      5-min Rain = 0
KPA1 161322Z 22006KT M01/M03 A30 RMK A01 T10081033  RH  083%=      5-min Rain = 0
KPA1 161323Z 21006KT M01/M03 A30 RMK A01 T10091033  RH  083%=      5-min Rain = 0
KPA1 161324Z 22005KT M01/M03 A30 RMK A01 T10091033  RH  084%=      5-min Rain = 0
KPA1 161325Z 22006KT M01/M03 A30 RMK A01 T10091033  RH  084%=      5-min Rain = 0
KPA1 161326Z 22005KT M01/M03 A30 RMK A01 T10091033  RH  084%=      5-min Rain = 0
KPA1 161327Z 22005KT M01/M03 A30 RMK A01 T10091033  RH  084%=      5-min Rain = 0
KPA1 161328Z 22005KT M01/M03 A30 RMK A01 T10101034  RH  084%=      5-min Rain = 0
KPA1 161329Z 21006KT M01/M03 A30 RMK A01 T10111034  RH  084%=      5-min Rain = 0
KPA1 161330Z 21006KT M01/M03 A30 RMK A01 T10111034  RH  084%=      5-min Rain = 0
KPA1 161331Z 21006KT M01/M03 A30 RMK A01 T10111034  RH  085%=      5-min Rain = 0
KPA1 161332Z 21006KT M01/M03 A2999 RMK A01 T10121034  RH  085%=      5-min Rain = 0
KPA1 161333Z 22007KT M01/M03 A2999 RMK A01 T10121034  RH  085%=      5-min Rain = 0
KPA1 161334Z 21007KT M01/M03 A2999 RMK A01 T10121033  RH  086%=      5-min Rain = 0
KPA1 161335Z 21006KT M01/M03 A2999 RMK A01 T10111032  RH  086%=      5-min Rain = 0
KPA1 161336Z 22006KT M01/M03 A2999 RMK A01 T10111032  RH  085%=      5-min Rain = 0
KPA1 161337Z 21006KT M01/M03 A2999 RMK A01 T10101032  RH  085%=      5-min Rain = 0
KPA1 161338Z 22006KT M01/M03 A2999 RMK A01 T10111032  RH  085%=      5-min Rain = 0
KPA1 161339Z 22006KT M01/M03 A2999 RMK A01 T10111033  RH  085%=      5-min Rain = 0
KPA1 161340Z 23006KT M01/M03 A2999 RMK A01 T10111033  RH  085%=      5-min Rain = 0
KPA1 161341Z 23006KT M01/M03 A2999 RMK A01 T10111032  RH  085%=      5-min Rain = 0
KPA1 161342Z 23006KT M01/M03 A2999 RMK A01 T10101032  RH  085%=      5-min Rain = 0
KPA1 161343Z 23007KT M01/M03 A2999 RMK A01 T10101032  RH  085%=      5-min Rain = 0
KPA1 161344Z 23007KT M01/M03 A30 RMK A01 T10091031  RH  085%=      5-min Rain = 0
KPA1 161345Z 24007KT M01/M03 A30 RMK A01 T10081030  RH  085%=      5-min Rain = 0
KPA1 161346Z 24007KT M01/M03 A2999 RMK A01 T10071030  RH  085%=      5-min Rain = 0
KPA1 161347Z 24008KT M01/M03 A2999 RMK A01 T10061030  RH  084%=      5-min Rain = 0
KPA1 161348Z 24008KT M01/M03 A2999 RMK A01 T10051029  RH  084%=      5-min Rain = 0
KPA1 161349Z 24009KT M00/M03 A2999 RMK A01 T10041028  RH  084%=      5-min Rain = 0
KPA1 161350Z 24009KT M00/M03 A2999 RMK A01 T10031028  RH  084%=      5-min Rain = 0
KPA1 161351Z 24009KT M00/M03 A2999 RMK A01 T10021027  RH  083%=      5-min Rain = 0
KPA1 161352Z 24009KT M00/M03 A2999 RMK A01 T10021028  RH  083%=      5-min Rain = 0
KPA1 161353Z 24009KT M00/M03 A2999 RMK A01 T10021027  RH  083%=      5-min Rain = 0
KPA1 161354Z 24009KT M00/M03 A2999 RMK A01 T10011027  RH  083%=      5-min Rain = 0
KPA1 161355Z 24009KT M00/M03 A2999 RMK A01 T10011027  RH  083%=      5-min Rain = 0
KPA1 161356Z 24009KT 00/03 A2999 RMK A01 T00-00-27  RH  082%=      5-min Rain = 0
KPA1 161357Z 24009KT 00/03 A2999 RMK A01 T00000-26  RH  082%=      5-min Rain = 0
KPA1 161358Z 23009KT 00/M03 A2999 RMK A01 T00011026  RH  082%=      5-min Rain = 0
KPA1 161359Z 23009KT 00/M03 A30 RMK A01 T00011026  RH  082%=      5-min Rain = 0
KPA1 161400Z 23009KT 00/M03 A30 RMK A01 T00011026  RH  082%=      5-min Rain = 0
KPA1 161401Z 23009KT 00/M03 A30 RMK A01 T00021026  RH  082%=      5-min Rain = 0
KPA1 161402Z 23009KT 00/M03 A30 RMK A01 T00021026  RH  082%=      5-min Rain = 0
KPA1 161403Z 24009KT 00/M03 A30 RMK A01 T00031025  RH  082%=      5-min Rain = 0
KPA1 161404Z 24009KT 00/M03 A30 RMK A01 T00031025  RH  081%=      5-min Rain = 0
KPA1 161405Z 24009KT 00/M03 A30 RMK A01 T00031025  RH  081%=      5-min Rain = 0
KPA1 161406Z 24009KT 00/M03 A30 RMK A01 T00031025  RH  081%=      5-min Rain = 0
KPA1 161407Z 24008KT 00/M03 A30 RMK A01 T00041025  RH  081%=      5-min Rain = 0
KPA1 161408Z 24008KT 00/M02 A30 RMK A01 T00041024  RH  081%=      5-min Rain = 0
KPA1 161409Z 24008KT 01/M02 A30 RMK A01 T00051024  RH  081%=      5-min Rain = 0
KPA1 161410Z 24008KT 01/M02 A30 RMK A01 T00051024  RH  081%=      5-min Rain = 0
KPA1 161411Z 24008KT 01/M02 A30 RMK A01 T00051024  RH  081%=      5-min Rain = 0
KPA1 161412Z 23007KT 01/M02 A30 RMK A01 T00051023  RH  081%=      5-min Rain = 0
KPA1 161413Z 24007KT 01/M02 A30 RMK A01 T00051023  RH  081%=      5-min Rain = 0
KPA1 161414Z 24007KT 01/M02 A30 RMK A01 T00061022  RH  082%=      5-min Rain = 0
KPA1 161415Z 24008KT 01/M02 A30 RMK A01 T00061022  RH  082%=      5-min Rain = 0
KPA1 161416Z 24007KT 01/M02 A30 RMK A01 T00071022  RH  081%=      5-min Rain = 0
KPA1 161417Z 24008KT 01/M02 A30 RMK A01 T00071021  RH  081%=      5-min Rain = 0
KPA1 161418Z 24008KT 01/M02 A30 RMK A01 T00081021  RH  081%=      5-min Rain = 0
KPA1 161419Z 24007KT 01/M02 A30 RMK A01 T00091021  RH  081%=      5-min Rain = 0
KPA1 161420Z 24008KT 01/M02 A30 RMK A01 T00091021  RH  081%=      5-min Rain = 0
KPA1 161421Z 24008KT 01/M02 A30 RMK A01 T00091021  RH  080%=      5-min Rain = 0
KPA1 161422Z 23007KT 01/M02 A30 RMK A01 T00091021  RH  080%=      5-min Rain = 0
KPA1 161423Z 23007KT 01/M02 A30 RMK A01 T00091021  RH  081%=      5-min Rain = 0
KPA1 161424Z 23007KT 01/M02 A30 RMK A01 T00091020  RH  081%=      5-min Rain = 0
KPA1 161425Z 23007KT 01/M02 A30 RMK A01 T00101019  RH  081%=      5-min Rain = 0
KPA1 161426Z 24007KT 01/M02 A30 RMK A01 T00101019  RH  081%=      5-min Rain = 0
KPA1 161427Z 23007KT 01/M02 A30 RMK A01 T00101019  RH  081%=      5-min Rain = 0
KPA1 161428Z 24007KT 01/M02 A30 RMK A01 T00101018  RH  081%=      5-min Rain = 0
KPA1 161429Z 23006KT 01/M02 A30 RMK A01 T00111018  RH  081%=      5-min Rain = 0
KPA1 161430Z 24007KT 01/M02 A30 RMK A01 T00121017  RH  081%=      5-min Rain = 0
KPA1 161431Z 24006KT 01/M02 A30 RMK A01 T00121017  RH  081%=      5-min Rain = 0
KPA1 161432Z 24006KT 01/M02 A30 RMK A01 T00131017  RH  080%=      5-min Rain = 0
KPA1 161433Z 24006KT 01/M02 A30 RMK A01 T00141017  RH  080%=      5-min Rain = 0
KPA1 161434Z 24006KT 02/M02 A30 RMK A01 T00151016  RH  080%=      5-min Rain = 0
KPA1 161435Z 23006KT 02/M02 A30 RMK A01 T00151016  RH  080%=      5-min Rain = 0
KPA1 161436Z 23007KT 02/M02 A30 RMK A01 T00161015  RH  080%=      5-min Rain = 0
KPA1 161437Z 23007KT 02/M02 A30 RMK A01 T00161015  RH  080%=      5-min Rain = 0
KPA1 161438Z 23007KT 02/M02 A30 RMK A01 T00161015  RH  080%=      5-min Rain = 0
KPA1 161439Z 23008KT 02/M01 A30 RMK A01 T00171014  RH  080%=      5-min Rain = 0
KPA1 161440Z 23007KT 02/M01 A30 RMK A01 T00171014  RH  080%=      5-min Rain = 0
KPA1 161441Z 23008KT 02/M01 A30 RMK A01 T00171014  RH  080%=      5-min Rain = 0
KPA1 161442Z 23008KT 02/M01 A30 RMK A01 T00181013  RH  080%=      5-min Rain = 0
KPA1 161443Z 23008KT 02/M01 A30 RMK A01 T00181013  RH  080%=      5-min Rain = 0
KPA1 161444Z 23008KT 02/M01 A30 RMK A01 T00191013  RH  080%=      5-min Rain = 0
KPA1 161445Z 23007KT 02/M01 A30 RMK A01 T00191012  RH  080%=      5-min Rain = 0
KPA1 161446Z 23007KT 02/M01 A30 RMK A01 T00201012  RH  080%=      5-min Rain = 0
KPA1 161447Z 23006KT 02/M01 A30 RMK A01 T00211010  RH  080%=      5-min Rain = 0
KPA1 161448Z 23006KT 02/M01 A30 RMK A01 T00211009  RH  080%=      5-min Rain = 0
KPA1 161449Z 24006KT 02/M01 A30 RMK A01 T00221009  RH  080%=      5-min Rain = 0
KPA1 161450Z 23007KT 02/M01 A30 RMK A01 T00231009  RH  079%=      5-min Rain = 0
KPA1 161451Z 24005KT 02/M01 A30 RMK A01 T00241009  RH  079%=      5-min Rain = 0
KPA1 161452Z 24007KT 03/M01 A30 RMK A01 T00251007  RH  079%=      5-min Rain = 0
KPA1 161453Z 24007KT 03/M01 A2999 RMK A01 T00261008  RH  078%=      5-min Rain = 0
KPA1 161454Z 24006KT 03/M01 A2999 RMK A01 T00271009  RH  077%=      5-min Rain = 0
KPA1 161455Z 24007KT 03/M01 A30 RMK A01 T00281008  RH  077%=      5-min Rain = 0
KPA1 161456Z 23007KT 03/M01 A30 RMK A01 T00291006  RH  078%=      5-min Rain = 0
KPA1 161457Z 23007KT 03/M01 A30 RMK A01 T00301006  RH  078%=      5-min Rain = 0
KPA1 161458Z 23007KT 03/M01 A2999 RMK A01 T00301006  RH  077%=      5-min Rain = 0
KPA1 161459Z 23008KT 03/M01 A2999 RMK A01 T00301007  RH  076%=      5-min Rain = 0
KPA1 161500Z 24008KT 03/M01 A2999 RMK A01 T00301008  RH  076%=      5-min Rain = 0
KPA1 161501Z 24008KT 03/M01 A2999 RMK A01 T00311008  RH  076%=      5-min Rain = 0
KPA1 161502Z 23008KT 03/M01 A2999 RMK A01 T00311009  RH  075%=      5-min Rain = 0
KPA1 161503Z 23009KT 03/M01 A2999 RMK A01 T00311008  RH  076%=      5-min Rain = 0
KPA1 161504Z 23008KT 03/M01 A2999 RMK A01 T00321007  RH  075%=      5-min Rain = 0
KPA1 161505Z 23008KT 03/M01 A2999 RMK A01 T00321006  RH  076%=      5-min Rain = 0
KPA1 161506Z 23008KT 03/M01 A2999 RMK A01 T00331006  RH  076%=      5-min Rain = 0
KPA1 161507Z 23009KT 03/M01 A2999 RMK A01 T00331005  RH  076%=      5-min Rain = 0
KPA1 161508Z 23009KT 03/M01 A2999 RMK A01 T00341005  RH  076%=      5-min Rain = 0
KPA1 161509Z 23009KT 04/M00 A2999 RMK A01 T00351003  RH  076%=      5-min Rain = 0
KPA1 161510Z 23009KT 04/M00 A2999 RMK A01 T00361002  RH  076%=      5-min Rain = 0
KPA1 161511Z 23007KT 04/M00 A2999 RMK A01 T00371001  RH  077%=      5-min Rain = 0
KPA1 161512Z 24008KT 04/00 A2999 RMK A01 T00380001  RH  077%=      5-min Rain = 0
KPA1 161513Z 24008KT 04/00 A2999 RMK A01 T00380001  RH  076%=      5-min Rain = 0
KPA1 161514Z 23007KT 04/00 A2999 RMK A01 T00400001  RH  076%=      5-min Rain = 0
KPA1 161515Z 24008KT 04/00 A2999 RMK A01 T00410001  RH  076%=      5-min Rain = 0
KPA1 161516Z 24008KT 04/00 A2999 RMK A01 T00410000  RH  075%=      5-min Rain = 0
KPA1 161517Z 23007KT 04/00 A2999 RMK A01 T00420001  RH  075%=      5-min Rain = 0
KPA1 161518Z 23006KT 04/00 A2999 RMK A01 T00430003  RH  075%=      5-min Rain = 0
KPA1 161519Z 24007KT 05/01 A2999 RMK A01 T00450005  RH  076%=      5-min Rain = 0
KPA1 161520Z 24007KT 05/01 A2999 RMK A01 T00460005  RH  075%=      5-min Rain = 0
KPA1 161521Z 23007KT 05/00 A2999 RMK A01 T00460004  RH  074%=      5-min Rain = 0
KPA1 161522Z 24007KT 05/00 A2999 RMK A01 T00470003  RH  073%=      5-min Rain = 0
KPA1 161523Z 24008KT 05/01 A2999 RMK A01 T00480005  RH  074%=      5-min Rain = 0
KPA1 161524Z 24008KT 05/00 A2999 RMK A01 T00480001  RH  072%=      5-min Rain = 0
KPA1 161525Z 24007KT 05/01 A2999 RMK A01 T00490005  RH  073%=      5-min Rain = 0
KPA1 161526Z 24009KT 05/01 A2999 RMK A01 T00490005  RH  073%=      5-min Rain = 0
KPA1 161527Z 24009KT 05/00 A2999 RMK A01 T00500004  RH  072%=      5-min Rain = 0
KPA1 161528Z 23008KT 05/00 A2999 RMK A01 T00500003  RH  072%=      5-min Rain = 0
KPA1 161529Z 23008KT 05/00 A2999 RMK A01 T00500003  RH  071%=      5-min Rain = 0
KPA1 161530Z 23007KT 05/01 A2999 RMK A01 T00510006  RH  073%=      5-min Rain = 0
KPA1 161531Z 23008KT 05/01 A2999 RMK A01 T00520007  RH  072%=      5-min Rain = 0
KPA1 161532Z 23008KT 05/01 A2999 RMK A01 T00530008  RH  073%=      5-min Rain = 0
KPA1 161533Z 23009KT 05/01 A2999 RMK A01 T00540008  RH  072%=      5-min Rain = 0
KPA1 161534Z 24009KT 05/01 A2999 RMK A01 T00540005  RH  071%=      5-min Rain = 0
KPA1 161535Z 23007KT 05/00 A2999 RMK A01 T00540004  RH  070%=      5-min Rain = 0
KPA1 161536Z 23006KT 06/01 A2999 RMK A01 T00550009  RH  072%=      5-min Rain = 0
KPA1 161537Z 23006KT 06/01 A2999 RMK A01 T00560011  RH  073%=      5-min Rain = 0
KPA1 161538Z 24006KT 06/01 A2999 RMK A01 T00580013  RH  073%=      5-min Rain = 0
KPA1 161539Z 24006KT 06/01 A2999 RMK A01 T00590014  RH  073%=      5-min Rain = 0
KPA1 161540Z 23006KT 06/01 A2999 RMK A01 T00600013  RH  072%=      5-min Rain = 0
KPA1 161541Z 24007KT 06/01 A2999 RMK A01 T00610012  RH  071%=      5-min Rain = 0
KPA1 161542Z 23006KT 06/01 A2999 RMK A01 T00620014  RH  072%=      5-min Rain = 0
KPA1 161543Z 24008KT 06/01 A2999 RMK A01 T00630014  RH  071%=      5-min Rain = 0
KPA1 161544Z 24007KT 06/01 A2999 RMK A01 T00640014  RH  070%=      5-min Rain = 0
KPA1 161545Z 23009KT 06/01 A2999 RMK A01 T00640011  RH  069%=      5-min Rain = 0
KPA1 161546Z 24008KT 07/01 A2999 RMK A01 T00650012  RH  069%=      5-min Rain = 0
KPA1 161547Z 24008KT 07/01 A2999 RMK A01 T00660014  RH  070%=      5-min Rain = 0
KPA1 161548Z 24008KT 07/02 A2999 RMK A01 T00670016  RH  070%=      5-min Rain = 0
KPA1 161549Z 24008KT 07/01 A2999 RMK A01 T00680013  RH  068%=      5-min Rain = 0
KPA1 161550Z 24008KT 07/01 A2999 RMK A01 T00670011  RH  067%=      5-min Rain = 0
KPA1 161551Z 24008KT 07/02 A2999 RMK A01 T00690015  RH  069%=      5-min Rain = 0
KPA1 161552Z 24007KT 07/02 A2999 RMK A01 T00700016  RH  068%=      5-min Rain = 0
KPA1 161553Z 25008KT 07/02 A2999 RMK A01 T00720019  RH  069%=      5-min Rain = 0
KPA1 161554Z 24008KT 07/01 A2999 RMK A01 T00730014  RH  066%=      5-min Rain = 0
KPA1 161555Z 25009KT 07/02 A2999 RMK A01 T00740018  RH  067%=      5-min Rain = 0
KPA1 161556Z 24008KT 08/02 A2998 RMK A01 T00750015  RH  066%=      5-min Rain = 0
KPA1 161557Z 25009KT 08/02 A2998 RMK A01 T00760015  RH  065%=      5-min Rain = 0
KPA1 161558Z 25010KT 08/02 A2998 RMK A01 T00770015  RH  065%=      5-min Rain = 0
KPA1 161559Z 24009KT 08/01 A2998 RMK A01 T00770014  RH  064%=      5-min Rain = 0
KPA1 161600Z 24009KT 08/02 A2999 RMK A01 T00780015  RH  064%=      5-min Rain = 0
KPA1 161601Z 24007KT 08/02 A2999 RMK A01 T00800018  RH  065%=      5-min Rain = 0
KPA1 161602Z 23008KT 08/03 A2999 RMK A01 T00820025  RH  067%=      5-min Rain = 0
KPA1 161603Z 23009KT 08/02 A2999 RMK A01 T00840023  RH  066%=      5-min Rain = 0
KPA1 161604Z 23009KT 08/02 A2999 RMK A01 T00830021  RH  065%=      5-min Rain = 0
KPA1 161605Z 24009KT 08/02 A2999 RMK A01 T00840021  RH  064%=      5-min Rain = 0
KPA1 161606Z 24009KT 09/02 A2998 RMK A01 T00850021  RH  064%=      5-min Rain = 0
KPA1 161607Z 24008KT 09/02 A2998 RMK A01 T00860022  RH  064%=      5-min Rain = 0
KPA1 161608Z 24008KT 09/02 A2998 RMK A01 T00870023  RH  064%=      5-min Rain = 0
KPA1 161609Z 24009KT 09/03 A2998 RMK A01 T00890027  RH  065%=      5-min Rain = 0
KPA1 161610Z 24008KT 09/03 A2998 RMK A01 T00910025  RH  063%=      5-min Rain = 0
KPA1 161611Z 25009KT 09/02 A2998 RMK A01 T00920024  RH  062%=      5-min Rain = 0
KPA1 161612Z 24009KT 10/03 A2998 RMK A01 T00950025  RH  061%=      5-min Rain = 0
KPA1 161613Z 24010KT 10/03 A2998 RMK A01 T00970025  RH  061%=      5-min Rain = 0
KPA1 161614Z 24010KT 10/02 A2998 RMK A01 T00980023  RH  060%=      5-min Rain = 0
KPA1 161615Z 24010KT 10/02 A2998 RMK A01 T00990023  RH  059%=      5-min Rain = 0
KPA1 161616Z 24011KT 10/02 A2998 RMK A01 T01010022  RH  058%=      5-min Rain = 0
KPA1 161617Z 24008KT 10/02 A2998 RMK A01 T01020024  RH  059%=      5-min Rain = 0
KPA1 161618Z 24009KT 10/03 A2998 RMK A01 T01030028  RH  059%=      5-min Rain = 0
KPA1 161619Z 24009KT 11/03 A2998 RMK A01 T01050028  RH  059%=      5-min Rain = 0
KPA1 161620Z 23009KT 11/03 A2998 RMK A01 T01050028  RH  059%=      5-min Rain = 0
KPA1 161621Z 23011KT 11/03 A2998 RMK A01 T01050026  RH  058%=      5-min Rain = 0
KPA1 161622Z 24011KT 10/02 A2998 RMK A01 T01040022  RH  057%=      5-min Rain = 0
KPA1 161623Z 23012KT 10/02 A2998 RMK A01 T01040019  RH  056%=      5-min Rain = 0
KPA1 161624Z 24010KT 10/02 A2998 RMK A01 T01030021  RH  057%=      5-min Rain = 0
KPA1 161625Z 24010KT 10/02 A2998 RMK A01 T01040021  RH  056%=      5-min Rain = 0
KPA1 161626Z 24009KT 11/02 A2998 RMK A01 T01050022  RH  056%=      5-min Rain = 0
KPA1 161627Z 24010KT 11/02 A2998 RMK A01 T01060021  RH  056%=      5-min Rain = 0
KPA1 161628Z 25009KT 11/02 A2998 RMK A01 T01070024  RH  057%=      5-min Rain = 0
KPA1 161629Z 25009KT 11/03 A2998 RMK A01 T01090025  RH  056%=      5-min Rain = 0
KPA1 161630Z 25009KT 11/02 A2998 RMK A01 T01100023  RH  055%=      5-min Rain = 0
KPA1 161631Z 25009KT 11/02 A2998 RMK A01 T01100023  RH  055%=      5-min Rain = 0
KPA1 161632Z 25009KT 11/02 A2998 RMK A01 T01100022  RH  054%=      5-min Rain = 0
KPA1 161633Z 25010KT 11/02 A2998 RMK A01 T01110024  RH  055%=      5-min Rain = 0
KPA1 161634Z 25009KT 11/03 A2998 RMK A01 T01120025  RH  055%=      5-min Rain = 0
KPA1 161635Z 25009KT 11/02 A2998 RMK A01 T01130022  RH  053%=      5-min Rain = 0
KPA1 161636Z 24010KT 11/02 A2997 RMK A01 T01140020  RH  053%=      5-min Rain = 0
KPA1 161637Z 25009KT 11/02 A2997 RMK A01 T01140023  RH  054%=      5-min Rain = 0
KPA1 161638Z 26010KT 12/02 A2997 RMK A01 T01170024  RH  053%=      5-min Rain = 0
KPA1 161639Z 26010KT 12/02 A2997 RMK A01 T01170019  RH  051%=      5-min Rain = 0
KPA1 161640Z 25010KT 12/02 A2997 RMK A01 T01160017  RH  051%=      5-min Rain = 0
KPA1 161641Z 26009KT 12/02 A2997 RMK A01 T01150015  RH  050%=      5-min Rain = 0
KPA1 161642Z 26009KT 12/02 A2997 RMK A01 T01160019  RH  051%=      5-min Rain = 0
KPA1 161643Z 26009KT 12/02 A2997 RMK A01 T01170020  RH  051%=      5-min Rain = 0
KPA1 161644Z 25009KT 12/02 A2997 RMK A01 T01190021  RH  051%=      5-min Rain = 0
KPA1 161645Z 24010KT 12/02 A2997 RMK A01 T01220021  RH  050%=      5-min Rain = 0
KPA1 161646Z 25011KT 12/02 A2997 RMK A01 T01230018  RH  049%=      5-min Rain = 0
KPA1 161647Z 25010KT 12/02 A2997 RMK A01 T01240020  RH  049%=      5-min Rain = 0
KPA1 161648Z 26010KT 13/02 A2997 RMK A01 T01260024  RH  050%=      5-min Rain = 0
KPA1 161649Z 26010KT 13/03 A2997 RMK A01 T01290025  RH  049%=      5-min Rain = 0
KPA1 161650Z 24011KT 13/02 A2997 RMK A01 T01310020  RH  047%=      5-min Rain = 0
KPA1 161651Z 24012KT 13/02 A2997 RMK A01 T01310019  RH  046%=      5-min Rain = 0
KPA1 161652Z 25012KT 13/02 A2997 RMK A01 T01290018  RH  047%=      5-min Rain = 0
KPA1 161653Z 25013KT 13/01 A2997 RMK A01 T01300014  RH  045%=      5-min Rain = 0
KPA1 161654Z 25013KT 13/01 A2997 RMK A01 T01290013  RH  045%=      5-min Rain = 0
KPA1 161655Z 25013KT 13/01 A2996 RMK A01 T01290013  RH  045%=      5-min Rain = 0
KPA1 161656Z 24012KT 13/02 A2996 RMK A01 T01300016  RH  046%=      5-min Rain = 0
KPA1 161657Z 24012KT 13/02 A2997 RMK A01 T01320017  RH  045%=      5-min Rain = 0
KPA1 161658Z 25013KT 13/02 A2997 RMK A01 T01330017  RH  045%=      5-min Rain = 0
KPA1 161659Z 25012KT 13/02 A2996 RMK A01 T01320017  RH  046%=      5-min Rain = 0
KPA1 161700Z 24013KT 13/02 A2996 RMK A01 T01340022  RH  047%=      5-min Rain = 0
KPA1 161701Z 25012KT 14/02 A2996 RMK A01 T01360017  RH  045%=      5-min Rain = 0
KPA1 161702Z 24013KT 14/02 A2996 RMK A01 T01370018  RH  044%=      5-min Rain = 0
KPA1 161703Z 25013KT 14/01 A2996 RMK A01 T01360012  RH  043%=      5-min Rain = 0
KPA1 161704Z 25011KT 14/02 A2997 RMK A01 T01350015  RH  044%=      5-min Rain = 0
KPA1 161705Z 25012KT 14/02 A2997 RMK A01 T01370015  RH  044%=      5-min Rain = 0
KPA1 161706Z 25012KT 14/01 A2997 RMK A01 T01360012  RH  043%=      5-min Rain = 0
KPA1 161707Z 24010KT 14/01 A2997 RMK A01 T01350013  RH  043%=      5-min Rain = 0
KPA1 161708Z 24012KT 14/02 A2997 RMK A01 T01370015  RH  044%=      5-min Rain = 0
KPA1 161709Z 24010KT 14/02 A2997 RMK A01 T01390019  RH  044%=      5-min Rain = 0
KPA1 161710Z 24012KT 14/02 A2997 RMK A01 T01410016  RH  043%=      5-min Rain = 0
KPA1 161711Z 24012KT 14/01 A2997 RMK A01 T01400013  RH  042%=      5-min Rain = 0
KPA1 161712Z 24012KT 14/01 A2997 RMK A01 T01390011  RH  042%=      5-min Rain = 0
KPA1 161713Z 24011KT 14/01 A2997 RMK A01 T01380010  RH  042%=      5-min Rain = 0
KPA1 161714Z 24010KT 14/02 A2997 RMK A01 T01380015  RH  043%=      5-min Rain = 0
KPA1 161715Z 24010KT 14/01 A2997 RMK A01 T01390012  RH  042%=      5-min Rain = 0
KPA1 161716Z 24011KT 14/01 A2997 RMK A01 T01400014  RH  042%=      5-min Rain = 0
KPA1 161717Z 23010KT 14/02 A2997 RMK A01 T01400016  RH  043%=      5-min Rain = 0
KPA1 161718Z 24009KT 14/02 A2996 RMK A01 T01410021  RH  044%=      5-min Rain = 0
KPA1 161719Z 23010KT 14/02 A2996 RMK A01 T01420019  RH  043%=      5-min Rain = 0
KPA1 161720Z 24009KT 14/02 A2997 RMK A01 T01420021  RH  044%=      5-min Rain = 0
KPA1 161721Z 24010KT 14/02 A2997 RMK A01 T01440021  RH  043%=      5-min Rain = 0
KPA1 161722Z 23009KT 14/02 A2997 RMK A01 T01440020  RH  043%=      5-min Rain = 0
KPA1 161723Z 24009KT 14/03 A2996 RMK A01 T01430025  RH  045%=      5-min Rain = 0
KPA1 161724Z 24009KT 14/02 A2996 RMK A01 T01440019  RH  043%=      5-min Rain = 0
KPA1 161725Z 23009KT 14/02 A2996 RMK A01 T01420016  RH  042%=      5-min Rain = 0
KPA1 161726Z 23011KT 14/02 A2996 RMK A01 T01420021  RH  044%=      5-min Rain = 0
KPA1 161727Z 21010KT 14/02 A2996 RMK A01 T01420023  RH  044%=      5-min Rain = 0
KPA1 161728Z 21010KT 14/02 A2996 RMK A01 T01430024  RH  045%=      5-min Rain = 0
KPA1 161729Z 21010KT 14/03 A2996 RMK A01 T01440026  RH  045%=      5-min Rain = 0
KPA1 161730Z 21009KT 15/03 A2996 RMK A01 T01450029  RH  045%=      5-min Rain = 0
KPA1 161731Z 20009KT 15/03 A2996 RMK A01 T01460026  RH  044%=      5-min Rain = 0
KPA1 161732Z 21009KT 15/03 A2996 RMK A01 T01450027  RH  045%=      5-min Rain = 0
KPA1 161733Z 21009KT 15/03 A2996 RMK A01 T01460028  RH  045%=      5-min Rain = 0
KPA1 161734Z 22010KT 15/03 A2996 RMK A01 T01450026  RH  044%=      5-min Rain = 0
KPA1 161735Z 21010KT 15/03 A2996 RMK A01 T01460029  RH  046%=      5-min Rain = 0
KPA1 161736Z 21011KT 15/03 A2996 RMK A01 T01470028  RH  045%=      5-min Rain = 0
KPA1 161737Z 21009KT 15/03 A2996 RMK A01 T01470029  RH  045%=      5-min Rain = 0
KPA1 161738Z 21011KT 15/03 A2996 RMK A01 T01470028  RH  045%=      5-min Rain = 0
KPA1 161739Z 21010KT 15/03 A2996 RMK A01 T01480029  RH  045%=      5-min Rain = 0
KPA1 161740Z 21010KT 15/03 A2996 RMK A01 T01480028  RH  045%=      5-min Rain = 0
KPA1 161741Z 22011KT 15/03 A2996 RMK A01 T01490029  RH  044%=      5-min Rain = 0
KPA1 161742Z 21009KT 15/03 A2996 RMK A01 T01490029  RH  044%=      5-min Rain = 0
KPA1 161743Z 22010KT 15/03 A2996 RMK A01 T01480030  RH  045%=      5-min Rain = 0
KPA1 161744Z 21012KT 15/03 A2996 RMK A01 T01490027  RH  044%=      5-min Rain = 0
KPA1 161745Z 22010KT 15/03 A2996 RMK A01 T01490028  RH  044%=      5-min Rain = 0
KPA1 161746Z 21011KT 15/03 A2996 RMK A01 T01520031  RH  044%=      5-min Rain = 0
KPA1 161747Z 22013KT 15/03 A2996 RMK A01 T01530029  RH  043%=      5-min Rain = 0
KPA1 161748Z 21013KT 15/03 A2996 RMK A01 T01520029  RH  043%=      5-min Rain = 0
KPA1 161749Z 22013KT 15/02 A2996 RMK A01 T01530024  RH  042%=      5-min Rain = 0
KPA1 161750Z 22011KT 15/03 A2996 RMK A01 T01520028  RH  043%=      5-min Rain = 0
KPA1 161751Z 23012G17KT 16/03 A2995 RMK A01 T01550029  RH  043%=      5-min Rain = 0
KPA1 161752Z 22015KT 15/02 A2995 RMK A01 T01540021  RH  041%=      5-min Rain = 0
KPA1 161753Z 22014KT 15/02 A2995 RMK A01 T01510021  RH  041%=      5-min Rain = 0
KPA1 161754Z 22012KT 15/02 A2995 RMK A01 T01510022  RH  042%=      5-min Rain = 0
KPA1 161755Z 22014KT 15/03 A2995 RMK A01 T01530028  RH  043%=      5-min Rain = 0
KPA1 161756Z 22014KT 15/02 A2995 RMK A01 T01540021  RH  041%=      5-min Rain = 0
KPA1 161757Z 23013KT 15/02 A2995 RMK A01 T01530022  RH  041%=      5-min Rain = 0
KPA1 161758Z 23016KT 15/02 A2995 RMK A01 T01540020  RH  040%=      5-min Rain = 0
KPA1 161759Z 23015KT 15/02 A2995 RMK A01 T01540019  RH  040%=      5-min Rain = 0
KPA1 161800Z 23013KT 16/02 A2995 RMK A01 T01550022  RH  041%=      5-min Rain = 0
KPA1 161801Z 23014KT 16/02 A2995 RMK A01 T01560023  RH  041%=      5-min Rain = 0
KPA1 161802Z 23014KT 16/02 A2995 RMK A01 T01560022  RH  040%=      5-min Rain = 0
KPA1 161803Z 22011KT 16/02 A2995 RMK A01 T01560023  RH  041%=      5-min Rain = 0
KPA1 161804Z 22012KT 16/03 A2995 RMK A01 T01560028  RH  042%=      5-min Rain = 0
KPA1 161805Z 21013KT 16/03 A2995 RMK A01 T01570027  RH  041%=      5-min Rain = 0
KPA1 161806Z 20012KT 16/03 A2995 RMK A01 T01590028  RH  041%=      5-min Rain = 0
KPA1 161807Z 22012KT 16/02 A2995 RMK A01 T01600024  RH  040%=      5-min Rain = 0
KPA1 161808Z 22012KT 16/03 A2995 RMK A01 T01590025  RH  041%=      5-min Rain = 0
KPA1 161809Z 22012KT 16/02 A2995 RMK A01 T01580023  RH  040%=      5-min Rain = 0
KPA1 161810Z 22011KT 16/02 A2995 RMK A01 T01580023  RH  040%=      5-min Rain = 0
KPA1 161811Z 22015KT 16/03 A2995 RMK A01 T01590026  RH  041%=      5-min Rain = 0
KPA1 161812Z 22012KT 16/02 A2995 RMK A01 T01590020  RH  039%=      5-min Rain = 0
KPA1 161813Z 22015KT 16/02 A2994 RMK A01 T01590024  RH  040%=      5-min Rain = 0
KPA1 161814Z 21017KT 16/02 A2994 RMK A01 T01600023  RH  040%=      5-min Rain = 0
KPA1 161815Z 21017KT 16/02 A2994 RMK A01 T01600018  RH  038%=      5-min Rain = 0
KPA1 161816Z 22016KT 16/02 A2994 RMK A01 T01600017  RH  038%=      5-min Rain = 0
KPA1 161817Z 22012KT 16/02 A2994 RMK A01 T01590017  RH  038%=      5-min Rain = 0
KPA1 161818Z 22010KT 16/03 A2994 RMK A01 T01620026  RH  040%=      5-min Rain = 0
KPA1 161819Z 22016KT 17/03 A2994 RMK A01 T01670030  RH  040%=      5-min Rain = 0
KPA1 161820Z 22015KT 17/02 A2994 RMK A01 T01650017  RH  037%=      5-min Rain = 0
KPA1 161821Z 23013KT 16/02 A2994 RMK A01 T01630022  RH  039%=      5-min Rain = 0
KPA1 161822Z 23015KT 16/02 A2994 RMK A01 T01630020  RH  038%=      5-min Rain = 0
KPA1 161823Z 22014KT 16/02 A2994 RMK A01 T01620021  RH  038%=      5-min Rain = 0
KPA1 161824Z 22015KT 16/02 A2994 RMK A01 T01620021  RH  039%=      5-min Rain = 0
KPA1 161825Z 21017KT 16/02 A2994 RMK A01 T01610024  RH  040%=      5-min Rain = 0
KPA1 161826Z 22015KT 16/03 A2994 RMK A01 T01620026  RH  040%=      5-min Rain = 0
KPA1 161827Z 22016KT 16/02 A2994 RMK A01 T01620019  RH  038%=      5-min Rain = 0
KPA1 161828Z 22016KT 16/02 A2994 RMK A01 T01610020  RH  038%=      5-min Rain = 0
KPA1 161829Z 23014KT 16/02 A2994 RMK A01 T01610019  RH  038%=      5-min Rain = 0
KPA1 161830Z 21014KT 16/02 A2994 RMK A01 T01610024  RH  040%=      5-min Rain = 0
KPA1 161831Z 22013KT 16/02 A2994 RMK A01 T01620022  RH  039%=      5-min Rain = 0
KPA1 161832Z 22013KT 16/03 A2994 RMK A01 T01610025  RH  040%=      5-min Rain = 0
KPA1 161833Z 22013KT 17/03 A2994 RMK A01 T01660030  RH  040%=      5-min Rain = 0
KPA1 161834Z 21014KT 17/02 A2993 RMK A01 T01680024  RH  038%=      5-min Rain = 0
KPA1 161835Z 22013KT 17/03 A2993 RMK A01 T01660025  RH  039%=      5-min Rain = 0
KPA1 161836Z 22015KT 17/02 A2993 RMK A01 T01660024  RH  039%=      5-min Rain = 0
KPA1 161837Z 22016KT 17/02 A2993 RMK A01 T01660019  RH  037%=      5-min Rain = 0
KPA1 161838Z 21013KT 16/02 A2993 RMK A01 T01640016  RH  037%=      5-min Rain = 0
KPA1 161839Z 21015KT 16/02 A2993 RMK A01 T01630019  RH  038%=      5-min Rain = 0
KPA1 161840Z 21016KT 16/02 A2993 RMK A01 T01630017  RH  037%=      5-min Rain = 0
KPA1 161841Z 22016KT 16/02 A2993 RMK A01 T01640020  RH  038%=      5-min Rain = 0
KPA1 161842Z 22013KT 17/03 A2993 RMK A01 T01660025  RH  039%=      5-min Rain = 0
KPA1 161843Z 23013KT 17/02 A2993 RMK A01 T01680023  RH  038%=      5-min Rain = 0
KPA1 161844Z 23013KT 17/02 A2993 RMK A01 T01680019  RH  037%=      5-min Rain = 0
KPA1 161845Z 22017KT 17/02 A2993 RMK A01 T01670022  RH  037%=      5-min Rain = 0
KPA1 161846Z 22016KT 17/02 A2993 RMK A01 T01660016  RH  036%=      5-min Rain = 0
KPA1 161847Z 22016KT 17/02 A2993 RMK A01 T01660020  RH  037%=      5-min Rain = 0
KPA1 161848Z 21015KT 17/02 A2993 RMK A01 T01670017  RH  036%=      5-min Rain = 0
KPA1 161849Z 22016KT 17/02 A2993 RMK A01 T01670016  RH  036%=      5-min Rain = 0
KPA1 161850Z 21015KT 17/02 A2993 RMK A01 T01670015  RH  036%=      5-min Rain = 0
KPA1 161851Z 21014KT 17/02 A2993 RMK A01 T01660016  RH  036%=      5-min Rain = 0
KPA1 161852Z 21015KT 17/02 A2993 RMK A01 T01670019  RH  037%=      5-min Rain = 0
KPA1 161853Z 21017KT 17/02 A2992 RMK A01 T01680016  RH  036%=      5-min Rain = 0
KPA1 161854Z 22016KT 17/01 A2992 RMK A01 T01670011  RH  035%=      5-min Rain = 0
KPA1 161855Z 22018KT 17/02 A2992 RMK A01 T01700016  RH  036%=      5-min Rain = 0
KPA1 161856Z 22017KT 17/02 A2992 RMK A01 T01700019  RH  036%=      5-min Rain = 0
KPA1 161857Z 21015KT 17/01 A2992 RMK A01 T01700014  RH  035%=      5-min Rain = 0
KPA1 161858Z 22015KT 17/01 A2992 RMK A01 T01690014  RH  035%=      5-min Rain = 0
KPA1 161859Z 22016KT 17/01 A2992 RMK A01 T01690011  RH  034%=      5-min Rain = 0
KPA1 161900Z 22015KT 17/01 A2992 RMK A01 T01680009  RH  034%=      5-min Rain = 0
KPA1 161901Z 22016KT 17/01 A2992 RMK A01 T01680014  RH  035%=      5-min Rain = 0
KPA1 161902Z 22017KT 17/01 A2992 RMK A01 T01680013  RH  035%=      5-min Rain = 0
KPA1 161903Z 23016KT 17/01 A2992 RMK A01 T01680005  RH  033%=      5-min Rain = 0
KPA1 161904Z 22014KT 17/01 A2992 RMK A01 T01670012  RH  035%=      5-min Rain = 0
KPA1 161905Z 21013KT 17/02 A2992 RMK A01 T01690020  RH  037%=      5-min Rain = 0
KPA1 161906Z 21013KT 17/02 A2992 RMK A01 T01700020  RH  036%=      5-min Rain = 0
KPA1 161907Z 22013KT 17/02 A2992 RMK A01 T01720024  RH  037%=      5-min Rain = 0
KPA1 161908Z 21013KT 17/02 A2992 RMK A01 T01720020  RH  036%=      5-min Rain = 0
KPA1 161909Z 22014KT 17/03 A2991 RMK A01 T01720025  RH  037%=      5-min Rain = 0
KPA1 161910Z 22013KT 17/02 A2991 RMK A01 T01730017  RH  035%=      5-min Rain = 0
KPA1 161911Z 21013KT 17/02 A2991 RMK A01 T01730021  RH  036%=      5-min Rain = 0
KPA1 161912Z 23012KT 18/02 A2991 RMK A01 T01750022  RH  036%=      5-min Rain = 0
KPA1 161913Z 21013KT 18/02 A2991 RMK A01 T01750019  RH  035%=      5-min Rain = 0
KPA1 161914Z 21014KT 17/02 A2991 RMK A01 T01740016  RH  034%=      5-min Rain = 0
KPA1 161915Z 21014KT 17/02 A2991 RMK A01 T01730017  RH  035%=      5-min Rain = 0
KPA1 161916Z 21013KT 17/02 A2991 RMK A01 T01730018  RH  035%=      5-min Rain = 0
KPA1 161917Z 22014KT 17/02 A2991 RMK A01 T01740018  RH  035%=      5-min Rain = 0
KPA1 161918Z 22012KT 17/02 A2991 RMK A01 T01730016  RH  035%=      5-min Rain = 0
KPA1 161919Z 21012KT 17/02 A2991 RMK A01 T01730018  RH  035%=      5-min Rain = 0
KPA1 161920Z 20013KT 17/02 A2991 RMK A01 T01740020  RH  036%=      5-min Rain = 0
KPA1 161921Z 20012G17KT 18/02 A2991 RMK A01 T01760020  RH  035%=      5-min Rain = 0
KPA1 161922Z 21015KT 18/02 A2991 RMK A01 T01770022  RH  035%=      5-min Rain = 0
KPA1 161923Z 22013KT 18/02 A2991 RMK A01 T01780019  RH  034%=      5-min Rain = 0
KPA1 161924Z 21012KT 18/02 A2991 RMK A01 T01770017  RH  034%=      5-min Rain = 0
KPA1 161925Z 20012KT 18/02 A2991 RMK A01 T01770015  RH  033%=      5-min Rain = 0
KPA1 161926Z 19013KT 18/01 A299 RMK A01 T01770006  RH  031%=      5-min Rain = 0
KPA1 161927Z 20015KT 18/01 A299 RMK A01 T01770007  RH  032%=      5-min Rain = 0
KPA1 161928Z 20014KT 18/01 A299 RMK A01 T01770007  RH  032%=      5-min Rain = 0
KPA1 161929Z 20012KT 18/01 A299 RMK A01 T01770010  RH  032%=      5-min Rain = 0
KPA1 161930Z 21011KT 18/02 A299 RMK A01 T01790015  RH  033%=      5-min Rain = 0
KPA1 161931Z 21014KT 18/02 A299 RMK A01 T01810016  RH  033%=      5-min Rain = 0
KPA1 161932Z 22014KT 18/01 A299 RMK A01 T01810012  RH  032%=      5-min Rain = 0
KPA1 161933Z 22012G17KT 18/01 A299 RMK A01 T01810008  RH  031%=      5-min Rain = 0
KPA1 161934Z 21011KT 18/01 A299 RMK A01 T01800010  RH  032%=      5-min Rain = 0
KPA1 161935Z 21014KT 18/02 A299 RMK A01 T01830015  RH  032%=      5-min Rain = 0
KPA1 161936Z 21014KT 18/01 A299 RMK A01 T01830009  RH  031%=      5-min Rain = 0
KPA1 161937Z 20013KT 18/01 A299 RMK A01 T01820007  RH  031%=      5-min Rain = 0
KPA1 161938Z 21014KT 18/00 A299 RMK A01 T01830002  RH  029%=      5-min Rain = 0
KPA1 161939Z 21013KT 18/M00 A299 RMK A01 T01811001  RH  029%=      5-min Rain = 0
KPA1 161940Z 22013KT 18/00 A299 RMK A01 T01790002  RH  030%=      5-min Rain = 0
KPA1 161941Z 20011KT 18/00 A299 RMK A01 T01800004  RH  031%=      5-min Rain = 0
KPA1 161942Z 20014KT 18/00 A299 RMK A01 T01800004  RH  030%=      5-min Rain = 0
KPA1 161943Z 21014KT 18/00 A299 RMK A01 T01810001  RH  030%=      5-min Rain = 0
KPA1 161944Z 21015KT 18/00 A299 RMK A01 T01810004  RH  030%=      5-min Rain = 0
KPA1 161945Z 21014KT 18/01 A299 RMK A01 T01830006  RH  030%=      5-min Rain = 0
KPA1 161946Z 21013KT 18/M00 A299 RMK A01 T01841004  RH  028%=      5-min Rain = 0
KPA1 161947Z 21013KT 18/M01 A299 RMK A01 T01821007  RH  028%=      5-min Rain = 0
KPA1 161948Z 21015KT 18/M01 A299 RMK A01 T01821005  RH  028%=      5-min Rain = 0
KPA1 161949Z 20013KT 18/M00 A299 RMK A01 T01821004  RH  028%=      5-min Rain = 0
KPA1 161950Z 19012KT 18/M00 A299 RMK A01 T01841001  RH  029%=      5-min Rain = 0
KPA1 161951Z 20012KT 19/M00 A299 RMK A01 T01851002  RH  028%=      5-min Rain = 0
KPA1 161952Z 20016KT 19/00 A299 RMK A01 T01860002  RH  029%=      5-min Rain = 0
KPA1 161953Z 20014KT 19/M00 A299 RMK A01 T01851003  RH  028%=      5-min Rain = 0
KPA1 161954Z 20015KT 18/M00 A299 RMK A01 T01831002  RH  029%=      5-min Rain = 0
KPA1 161955Z 20014KT 19/M00 A299 RMK A01 T01851004  RH  028%=      5-min Rain = 0
KPA1 161956Z 20015KT 19/M01 A299 RMK A01 T01851008  RH  027%=      5-min Rain = 0
KPA1 161957Z 21015KT 19/M00 A2989 RMK A01 T01861004  RH  028%=      5-min Rain = 0
KPA1 161958Z 21015KT 19/00 A2989 RMK A01 T01870001  RH  029%=      5-min Rain = 0
KPA1 161959Z 22014KT 19/M00 A2989 RMK A01 T01851003  RH  028%=      5-min Rain = 0
KPA1 162000Z 22014KT 18/M01 A2989 RMK A01 T01841010  RH  027%=      5-min Rain = 0
KPA1 162001Z 21013KT 19/M00 A2989 RMK A01 T01851002  RH  028%=      5-min Rain = 0
KPA1 162002Z 21014KT 19/M01 A2989 RMK A01 T01861006  RH  027%=      5-min Rain = 0
KPA1 162003Z 22015KT 19/M00 A2989 RMK A01 T01861004  RH  028%=      5-min Rain = 0
KPA1 162004Z 22013KT 19/M00 A2989 RMK A01 T01851003  RH  028%=      5-min Rain = 0
KPA1 162005Z 21013KT 19/00 A2989 RMK A01 T01850002  RH  029%=      5-min Rain = 0
KPA1 162006Z 22011KT 19/00 A2989 RMK A01 T01850004  RH  030%=      5-min Rain = 0
KPA1 162007Z 22012KT 19/01 A2989 RMK A01 T01870009  RH  030%=      5-min Rain = 0
KPA1 162008Z 22013KT 19/M00 A2989 RMK A01 T01881001  RH  028%=      5-min Rain = 0
KPA1 162009Z 22012KT 19/01 A2989 RMK A01 T01870005  RH  029%=      5-min Rain = 0
KPA1 162010Z 22012KT 19/00 A2989 RMK A01 T01880001  RH  028%=      5-min Rain = 0
KPA1 162011Z 21012KT 19/01 A2989 RMK A01 T01880006  RH  029%=      5-min Rain = 0
KPA1 162012Z 21013KT 19/01 A2989 RMK A01 T01890005  RH  029%=      5-min Rain = 0
KPA1 162013Z 21010KT 19/M00 A2989 RMK A01 T01871003  RH  028%=      5-min Rain = 0
KPA1 162014Z 20014KT 19/00 A2989 RMK A01 T01870003  RH  029%=      5-min Rain = 0
KPA1 162015Z 21013KT 19/00 A2989 RMK A01 T01890003  RH  029%=      5-min Rain = 0
KPA1 162016Z 21016KT 19/00 A2989 RMK A01 T01900000  RH  028%=      5-min Rain = 0
KPA1 162017Z 20014KT 19/M01 A2989 RMK A01 T01881009  RH  026%=      5-min Rain = 0
KPA1 162018Z 22014KT 19/M00 A2989 RMK A01 T01881003  RH  028%=      5-min Rain = 0
KPA1 162019Z 23014KT 19/M01 A2989 RMK A01 T01881008  RH  027%=      5-min Rain = 0
KPA1 162020Z 23014KT 19/M01 A2988 RMK A01 T01861006  RH  027%=      5-min Rain = 0
KPA1 162021Z 22014KT 19/M01 A2988 RMK A01 T01851008  RH  027%=      5-min Rain = 0
KPA1 162022Z 21014KT 19/M00 A2988 RMK A01 T01851004  RH  028%=      5-min Rain = 0
KPA1 162023Z 20013KT 19/M00 A2989 RMK A01 T01861002  RH  028%=      5-min Rain = 0
KPA1 162024Z 19011KT 19/M01 A2988 RMK A01 T01861007  RH  027%=      5-min Rain = 0
KPA1 162025Z 21012KT 19/M00 A2988 RMK A01 T01881003  RH  028%=      5-min Rain = 0
KPA1 162026Z 22013KT 19/M00 A2988 RMK A01 T01891001  RH  028%=      5-min Rain = 0
KPA1 162027Z 22015KT 19/M01 A2988 RMK A01 T01901007  RH  027%=      5-min Rain = 0
KPA1 162028Z 20012KT 19/M01 A2988 RMK A01 T01871011  RH  026%=      5-min Rain = 0
KPA1 162029Z 20013KT 19/M01 A2988 RMK A01 T01871009  RH  027%=      5-min Rain = 0
KPA1 162030Z 21012KT 19/M00 A2988 RMK A01 T01881004  RH  027%=      5-min Rain = 0
KPA1 162031Z 22012KT 19/M01 A2988 RMK A01 T01891007  RH  027%=      5-min Rain = 0
KPA1 162032Z 22011KT 19/M01 A2988 RMK A01 T01891006  RH  027%=      5-min Rain = 0
KPA1 162033Z 21016KT 19/M00 A2988 RMK A01 T01921004  RH  027%=      5-min Rain = 0
KPA1 162034Z 21016KT 19/M01 A2988 RMK A01 T01911009  RH  026%=      5-min Rain = 0
KPA1 162035Z 21014KT 19/M01 A2988 RMK A01 T01891013  RH  025%=      5-min Rain = 0
KPA1 162036Z 21012KT 19/M02 A2988 RMK A01 T01871015  RH  025%=      5-min Rain = 0
KPA1 162037Z 20012KT 19/M01 A2988 RMK A01 T01871009  RH  027%=      5-min Rain = 0
KPA1 162038Z 22013KT 19/M01 A2988 RMK A01 T01881007  RH  027%=      5-min Rain = 0
KPA1 162039Z 22013KT 19/M00 A2988 RMK A01 T01891004  RH  027%=      5-min Rain = 0
KPA1 162040Z 21012KT 19/00 A2988 RMK A01 T01920000  RH  028%=      5-min Rain = 0
KPA1 162041Z 20014KT 19/M01 A2988 RMK A01 T01921006  RH  026%=      5-min Rain = 0
KPA1 162042Z 21011KT 19/M01 A2988 RMK A01 T01911013  RH  025%=      5-min Rain = 0
KPA1 162043Z 21011KT 19/M01 A2988 RMK A01 T01901008  RH  026%=      5-min Rain = 0
KPA1 162044Z 22013KT 19/M00 A2988 RMK A01 T01911004  RH  027%=      5-min Rain = 0
KPA1 162045Z 22013KT 19/M00 A2988 RMK A01 T01921004  RH  027%=      5-min Rain = 0
KPA1 162046Z 21016KT 19/M01 A2988 RMK A01 T01931007  RH  026%=      5-min Rain = 0
KPA1 162047Z 20014KT 19/M02 A2988 RMK A01 T01901015  RH  025%=      5-min Rain = 0
KPA1 162048Z 20012KT 19/M01 A2988 RMK A01 T01891012  RH  026%=      5-min Rain = 0
KPA1 162049Z 22013KT 19/M01 A2988 RMK A01 T01911007  RH  026%=      5-min Rain = 0
KPA1 162050Z 21013KT 19/M01 A2988 RMK A01 T01911010  RH  026%=      5-min Rain = 0
KPA1 162051Z 21014KT 19/M01 A2988 RMK A01 T01901011  RH  026%=      5-min Rain = 0
KPA1 162052Z 22016KT 19/M01 A2987 RMK A01 T01901007  RH  026%=      5-min Rain = 0
KPA1 162053Z 22016KT 19/M01 A2987 RMK A01 T01911010  RH  026%=      5-min Rain = 0
KPA1 162054Z 22014KT 19/M01 A2987 RMK A01 T01891009  RH  026%=      5-min Rain = 0
KPA1 162055Z 22015KT 19/M01 A2987 RMK A01 T01891007  RH  027%=      5-min Rain = 0
KPA1 162056Z 21014KT 19/M01 A2987 RMK A01 T01901006  RH  027%=      5-min Rain = 0
KPA1 162057Z 20014KT 19/00 A2987 RMK A01 T01900000  RH  028%=      5-min Rain = 0
KPA1 162058Z 21012KT 19/M00 A2987 RMK A01 T01901004  RH  027%=      5-min Rain = 0
KPA1 162059Z 21010KT 19/M01 A2987 RMK A01 T01901007  RH  026%=      5-min Rain = 0
KPA1 162100Z 21012KT 19/M00 A2987 RMK A01 T01911003  RH  027%=      5-min Rain = 0
KPA1 162101Z 20014KT 19/M01 A2987 RMK A01 T01931006  RH  026%=      5-min Rain = 0
KPA1 162102Z 20016KT 19/M01 A2987 RMK A01 T01941010  RH  025%=      5-min Rain = 0
KPA1 162103Z 20014KT 19/M01 A2987 RMK A01 T01941009  RH  025%=      5-min Rain = 0
KPA1 162104Z 21015KT 19/M01 A2987 RMK A01 T01941011  RH  025%=      5-min Rain = 0
KPA1 162105Z 21013G18KT 19/M02 A2987 RMK A01 T01931017  RH  024%=      5-min Rain = 0
KPA1 162106Z 20016G21KT 19/M02 A2987 RMK A01 T01921019  RH  024%=      5-min Rain = 0
KPA1 162107Z 21018KT 19/M02 A2987 RMK A01 T01901020  RH  024%=      5-min Rain = 0
KPA1 162108Z 21015KT 19/M02 A2987 RMK A01 T01891023  RH  024%=      5-min Rain = 0
KPA1 162109Z 20013KT 19/M02 A2987 RMK A01 T01891018  RH  025%=      5-min Rain = 0
KPA1 162110Z 21015KT 19/M02 A2987 RMK A01 T01901019  RH  024%=      5-min Rain = 0
KPA1 162111Z 22012KT 19/M01 A2987 RMK A01 T01901010  RH  026%=      5-min Rain = 0
KPA1 162112Z 22012KT 19/M01 A2987 RMK A01 T01921012  RH  025%=      5-min Rain = 0
KPA1 162113Z 22011KT 19/M02 A2986 RMK A01 T01901017  RH  024%=      5-min Rain = 0
KPA1 162114Z 23012KT 19/M01 A2986 RMK A01 T01891011  RH  026%=      5-min Rain = 0
KPA1 162115Z 22014KT 19/M01 A2986 RMK A01 T01901013  RH  025%=      5-min Rain = 0
KPA1 162116Z 22014KT 19/M00 A2986 RMK A01 T01901004  RH  027%=      5-min Rain = 0
KPA1 162117Z 21014KT 19/01 A2986 RMK A01 T01940006  RH  028%=      5-min Rain = 0
KPA1 162118Z 20014KT 19/M01 A2986 RMK A01 T01941005  RH  026%=      5-min Rain = 0
KPA1 162119Z 20014KT 19/M01 A2986 RMK A01 T01921008  RH  026%=      5-min Rain = 0
KPA1 162120Z 20016KT 19/M01 A2986 RMK A01 T01921006  RH  026%=      5-min Rain = 0
KPA1 162121Z 21015KT 19/M01 A2986 RMK A01 T01921007  RH  026%=      5-min Rain = 0
KPA1 162122Z 21012KT 19/M01 A2986 RMK A01 T01911005  RH  027%=      5-min Rain = 0
KPA1 162123Z 21011KT 19/M01 A2986 RMK A01 T01921008  RH  026%=      5-min Rain = 0
KPA1 162124Z 22011KT 19/M01 A2986 RMK A01 T01921008  RH  026%=      5-min Rain = 0
KPA1 162125Z 22012KT 19/M01 A2986 RMK A01 T01911011  RH  026%=      5-min Rain = 0
KPA1 162126Z 21011KT 19/M00 A2986 RMK A01 T01931004  RH  027%=      5-min Rain = 0
KPA1 162127Z 21014G20KT 20/01 A2986 RMK A01 T01950007  RH  028%=      5-min Rain = 0
KPA1 162128Z 20014KT 20/00 A2986 RMK A01 T019700-0  RH  027%=      5-min Rain = 0
KPA1 162129Z 21012KT 20/M00 A2986 RMK A01 T01961001  RH  027%=      5-min Rain = 0
KPA1 162130Z 20012KT 19/00 A2986 RMK A01 T01940001  RH  027%=      5-min Rain = 0
KPA1 162131Z 20010KT 19/M01 A2986 RMK A01 T01931009  RH  026%=      5-min Rain = 0
KPA1 162132Z 20011KT 20/00 A2986 RMK A01 T01950004  RH  028%=      5-min Rain = 0
KPA1 162133Z 22011KT 20/M00 A2986 RMK A01 T01971001  RH  027%=      5-min Rain = 0
KPA1 162134Z 21014KT 20/M00 A2986 RMK A01 T01961002  RH  026%=      5-min Rain = 0
KPA1 162135Z 22013KT 20/00 A2986 RMK A01 T01950002  RH  027%=      5-min Rain = 0
KPA1 162136Z 22012KT 20/00 A2986 RMK A01 T01950001  RH  027%=      5-min Rain = 0
KPA1 162137Z 22011KT 19/00 A2986 RMK A01 T01940000  RH  027%=      5-min Rain = 0
KPA1 162138Z 20013KT 19/M00 A2986 RMK A01 T01941001  RH  027%=      5-min Rain = 0
KPA1 162139Z 20013KT 19/M01 A2986 RMK A01 T01941008  RH  026%=      5-min Rain = 0
KPA1 162140Z 20010KT 19/M01 A2986 RMK A01 T01941011  RH  025%=      5-min Rain = 0
KPA1 162141Z 20013KT 19/M01 A2986 RMK A01 T01941005  RH  026%=      5-min Rain = 0
KPA1 162142Z 20014KT 20/00 A2986 RMK A01 T01960002  RH  027%=      5-min Rain = 0
KPA1 162143Z 19014KT 20/M01 A2986 RMK A01 T01961005  RH  026%=      5-min Rain = 0
KPA1 162144Z 20013KT 20/M01 A2986 RMK A01 T01951007  RH  026%=      5-min Rain = 0
KPA1 162145Z 19012KT 19/M00 A2986 RMK A01 T01941004  RH  026%=      5-min Rain = 0
KPA1 162146Z 19014KT 20/M00 A2986 RMK A01 T01951003  RH  027%=      5-min Rain = 0
KPA1 162147Z 19013KT 19/M00 A2986 RMK A01 T01941003  RH  027%=      5-min Rain = 0
KPA1 162148Z 20014KT 19/M00 A2986 RMK A01 T01941003  RH  027%=      5-min Rain = 0
KPA1 162149Z 20014KT 19/M01 A2986 RMK A01 T01941008  RH  026%=      5-min Rain = 0
KPA1 162150Z 21014KT 19/M00 A2985 RMK A01 T01941001  RH  027%=      5-min Rain = 0
KPA1 162151Z 21015KT 19/M01 A2986 RMK A01 T01941010  RH  025%=      5-min Rain = 0
KPA1 162152Z 20015KT 19/M01 A2985 RMK A01 T01931012  RH  025%=      5-min Rain = 0
KPA1 162153Z 20013KT 19/M01 A2985 RMK A01 T01931009  RH  026%=      5-min Rain = 0
KPA1 162154Z 20013KT 19/M01 A2985 RMK A01 T01931012  RH  025%=      5-min Rain = 0
KPA1 162155Z 21010KT 19/M01 A2985 RMK A01 T01921014  RH  025%=      5-min Rain = 0
KPA1 162156Z 20012KT 19/M01 A2985 RMK A01 T01921007  RH  026%=      5-min Rain = 0
KPA1 162157Z 21014KT 19/M01 A2985 RMK A01 T01931008  RH  026%=      5-min Rain = 0
KPA1 162158Z 19012KT 19/M00 A2985 RMK A01 T01921004  RH  027%=      5-min Rain = 0
KPA1 162159Z 19012KT 19/M00 A2985 RMK A01 T01921002  RH  027%=      5-min Rain = 0
KPA1 162200Z 20014KT 19/00 A2985 RMK A01 T019300-0  RH  027%=      5-min Rain = 0
KPA1 162201Z 19013KT 19/00 A2985 RMK A01 T01930003  RH  028%=      5-min Rain = 0
KPA1 162202Z 19013KT 19/M00 A2985 RMK A01 T01931001  RH  027%=      5-min Rain = 0
KPA1 162203Z 20012KT 19/00 A2985 RMK A01 T01930002  RH  028%=      5-min Rain = 0
KPA1 162204Z 19011KT 19/00 A2985 RMK A01 T01930003  RH  028%=      5-min Rain = 0
KPA1 162205Z 20012KT 19/00 A2985 RMK A01 T01940003  RH  028%=      5-min Rain = 0
KPA1 162206Z 21014KT 19/00 A2985 RMK A01 T01940002  RH  028%=      5-min Rain = 0
KPA1 162207Z 21014KT 19/M01 A2985 RMK A01 T01931005  RH  026%=      5-min Rain = 0
KPA1 162208Z 21012KT 19/M00 A2985 RMK A01 T01921004  RH  027%=      5-min Rain = 0
KPA1 162209Z 21013KT 19/00 A2985 RMK A01 T019200-0  RH  027%=      5-min Rain = 0
KPA1 162210Z 20011KT 19/M00 A2985 RMK A01 T01921002  RH  027%=      5-min Rain = 0
KPA1 162211Z 21016KT 19/00 A2985 RMK A01 T01930000  RH  027%=      5-min Rain = 0
KPA1 162212Z 20014G19KT 19/M00 A2985 RMK A01 T01921004  RH  027%=      5-min Rain = 0
KPA1 162213Z 20013KT 19/00 A2985 RMK A01 T01910003  RH  028%=      5-min Rain = 0
KPA1 162214Z 20016KT 19/01 A2985 RMK A01 T01920005  RH  028%=      5-min Rain = 0
KPA1 162215Z 20015KT 19/M00 A2985 RMK A01 T01921003  RH  027%=      5-min Rain = 0
KPA1 162216Z 20015KT 19/M00 A2985 RMK A01 T01901003  RH  027%=      5-min Rain = 0
KPA1 162217Z 20013KT 19/00 A2985 RMK A01 T01890001  RH  028%=      5-min Rain = 0
KPA1 162218Z 19013KT 19/M00 A2985 RMK A01 T01901001  RH  028%=      5-min Rain = 0
KPA1 162219Z 20014KT 19/M00 A2985 RMK A01 T01901002  RH  027%=      5-min Rain = 0
KPA1 162220Z 20013KT 19/M01 A2985 RMK A01 T01891007  RH  027%=      5-min Rain = 0
KPA1 162221Z 20011KT 19/M00 A2985 RMK A01 T01891003  RH  027%=      5-min Rain = 0
KPA1 162222Z 21012KT 19/M00 A2985 RMK A01 T01901002  RH  028%=      5-min Rain = 0
KPA1 162223Z 21011KT 19/M01 A2985 RMK A01 T01901005  RH  027%=      5-min Rain = 0
KPA1 162224Z 21012KT 19/00 A2985 RMK A01 T01890001  RH  028%=      5-min Rain = 0
KPA1 162225Z 21016KT 19/00 A2985 RMK A01 T01900004  RH  029%=      5-min Rain = 0
KPA1 162226Z 20016KT 19/00 A2985 RMK A01 T01900000  RH  028%=      5-min Rain = 0
KPA1 162227Z 20015KT 19/M00 A2985 RMK A01 T01891002  RH  028%=      5-min Rain = 0
KPA1 162228Z 20013KT 19/M01 A2985 RMK A01 T01881005  RH  027%=      5-min Rain = 0
KPA1 162229Z 20012KT 19/M00 A2985 RMK A01 T01881002  RH  028%=      5-min Rain = 0
KPA1 162230Z 19014KT 19/00 A2985 RMK A01 T01890004  RH  029%=      5-min Rain = 0
KPA1 162231Z 19013KT 19/M00 A2985 RMK A01 T01891002  RH  028%=      5-min Rain = 0
KPA1 162232Z 20014KT 19/00 A2985 RMK A01 T01890002  RH  028%=      5-min Rain = 0
KPA1 162233Z 20013KT 19/01 A2985 RMK A01 T01890005  RH  029%=      5-min Rain = 0
KPA1 162234Z 21010KT 19/01 A2985 RMK A01 T01890010  RH  030%=      5-min Rain = 0
KPA1 162235Z 20013KT 19/01 A2985 RMK A01 T01890012  RH  031%=      5-min Rain = 0
KPA1 162236Z 20016KT 19/01 A2984 RMK A01 T01890008  RH  030%=      5-min Rain = 0
KPA1 162237Z 20015KT 19/00 A2984 RMK A01 T01890003  RH  029%=      5-min Rain = 0
KPA1 162238Z 20012KT 19/00 A2984 RMK A01 T01880003  RH  029%=      5-min Rain = 0
KPA1 162239Z 19014KT 19/00 A2984 RMK A01 T01880004  RH  029%=      5-min Rain = 0
KPA1 162240Z 19013KT 19/00 A2984 RMK A01 T018800-0  RH  028%=      5-min Rain = 0
KPA1 162241Z 20012KT 19/00 A2984 RMK A01 T01870002  RH  029%=      5-min Rain = 0
KPA1 162242Z 19014KT 19/01 A2984 RMK A01 T01870007  RH  030%=      5-min Rain = 0
KPA1 162243Z 19015KT 19/00 A2984 RMK A01 T01870004  RH  029%=      5-min Rain = 0
KPA1 162244Z 19015KT 19/00 A2984 RMK A01 T01860004  RH  029%=      5-min Rain = 0
KPA1 162245Z 19014KT 19/01 A2984 RMK A01 T01860005  RH  030%=      5-min Rain = 0
KPA1 162246Z 19013KT 19/00 A2984 RMK A01 T01850003  RH  029%=      5-min Rain = 0
KPA1 162247Z 19015KT 19/00 A2984 RMK A01 T01850004  RH  030%=      5-min Rain = 0
KPA1 162248Z 20014KT 19/00 A2984 RMK A01 T01850001  RH  029%=      5-min Rain = 0
KPA1 162249Z 19014KT 19/00 A2984 RMK A01 T01850002  RH  029%=      5-min Rain = 0
KPA1 162250Z 19015KT 19/00 A2984 RMK A01 T01850003  RH  029%=      5-min Rain = 0
KPA1 162251Z 19012KT 18/00 A2984 RMK A01 T01840003  RH  029%=      5-min Rain = 0
KPA1 162252Z 19015KT 18/01 A2984 RMK A01 T01840007  RH  030%=      5-min Rain = 0
KPA1 162253Z 19017KT 18/00 A2984 RMK A01 T01840002  RH  029%=      5-min Rain = 0
KPA1 162254Z 19015KT 18/00 A2984 RMK A01 T01830002  RH  029%=      5-min Rain = 0
KPA1 162255Z 19014KT 18/00 A2984 RMK A01 T01820003  RH  030%=      5-min Rain = 0
KPA1 162256Z 19014KT 18/01 A2984 RMK A01 T01820005  RH  030%=      5-min Rain = 0
KPA1 162257Z 19013KT 18/01 A2984 RMK A01 T01820008  RH  031%=      5-min Rain = 0
KPA1 162258Z 19012KT 18/01 A2984 RMK A01 T01820009  RH  031%=      5-min Rain = 0
KPA1 162259Z 19013KT 18/01 A2984 RMK A01 T01820007  RH  031%=      5-min Rain = 0
KPA1 162300Z 19014KT 18/01 A2984 RMK A01 T01820006  RH  031%=      5-min Rain = 0
KPA1 162301Z 19016KT 18/01 A2984 RMK A01 T01820006  RH  031%=      5-min Rain = 0
KPA1 162302Z 19015KT 18/01 A2984 RMK A01 T01810005  RH  031%=      5-min Rain = 0
KPA1 162303Z 19016KT 18/01 A2984 RMK A01 T01810006  RH  031%=      5-min Rain = 0
KPA1 162304Z 19016KT 18/01 A2984 RMK A01 T01800005  RH  031%=      5-min Rain = 0
KPA1 162305Z 20014KT 18/01 A2984 RMK A01 T01800005  RH  031%=      5-min Rain = 0
KPA1 162306Z 19013KT 18/01 A2984 RMK A01 T01790006  RH  031%=      5-min Rain = 0
KPA1 162307Z 20013KT 18/01 A2984 RMK A01 T01800007  RH  031%=      5-min Rain = 0
KPA1 162308Z 20014KT 18/00 A2984 RMK A01 T01790003  RH  030%=      5-min Rain = 0
KPA1 162309Z 19014KT 18/00 A2984 RMK A01 T01790003  RH  030%=      5-min Rain = 0
KPA1 162310Z 19015KT 18/00 A2984 RMK A01 T01790003  RH  031%=      5-min Rain = 0
KPA1 162311Z 19013KT 18/00 A2984 RMK A01 T01790004  RH  031%=      5-min Rain = 0
KPA1 162312Z 20012KT 18/01 A2984 RMK A01 T01790009  RH  032%=      5-min Rain = 0
KPA1 162313Z 20011KT 18/01 A2984 RMK A01 T01780012  RH  033%=      5-min Rain = 0
KPA1 162314Z 19015KT 18/01 A2984 RMK A01 T01780012  RH  033%=      5-min Rain = 0
KPA1 162315Z 20014KT 18/01 A2984 RMK A01 T01780007  RH  031%=      5-min Rain = 0
KPA1 162316Z 20015KT 18/01 A2984 RMK A01 T01780009  RH  032%=      5-min Rain = 0
KPA1 162317Z 21014KT 18/01 A2984 RMK A01 T01770008  RH  032%=      5-min Rain = 0
KPA1 162318Z 20012KT 18/01 A2984 RMK A01 T01770010  RH  032%=      5-min Rain = 0
KPA1 162319Z 20011G16KT 18/01 A2984 RMK A01 T01760014  RH  034%=      5-min Rain = 0
KPA1 162320Z 20013KT 18/01 A2984 RMK A01 T01760011  RH  033%=      5-min Rain = 0
KPA1 162321Z 20011KT 18/01 A2984 RMK A01 T01760012  RH  033%=      5-min Rain = 0
KPA1 162322Z 20012KT 18/02 A2984 RMK A01 T01750015  RH  034%=      5-min Rain = 0
KPA1 162323Z 20012KT 18/01 A2984 RMK A01 T01750011  RH  033%=      5-min Rain = 0
KPA1 162324Z 20013KT 17/01 A2984 RMK A01 T01740009  RH  033%=      5-min Rain = 0
KPA1 162325Z 19014KT 17/01 A2984 RMK A01 T01740008  RH  033%=      5-min Rain = 0
KPA1 162326Z 20013KT 17/01 A2984 RMK A01 T01740011  RH  033%=      5-min Rain = 0
KPA1 162327Z 20010KT 17/01 A2984 RMK A01 T01730012  RH  034%=      5-min Rain = 0
KPA1 162328Z 20012KT 17/01 A2984 RMK A01 T01720014  RH  034%=      5-min Rain = 0
KPA1 162329Z 20011KT 17/01 A2984 RMK A01 T01720012  RH  034%=      5-min Rain = 0
KPA1 162330Z 19012KT 17/01 A2984 RMK A01 T01720011  RH  034%=      5-min Rain = 0
KPA1 162331Z 20010KT 17/01 A2984 RMK A01 T01710012  RH  034%=      5-min Rain = 0
KPA1 162332Z 20013KT 17/01 A2984 RMK A01 T01710012  RH  034%=      5-min Rain = 0
KPA1 162333Z 20011KT 17/01 A2984 RMK A01 T01700012  RH  034%=      5-min Rain = 0
KPA1 162334Z 19011KT 17/01 A2984 RMK A01 T01700013  RH  035%=      5-min Rain = 0
KPA1 162335Z 19011KT 17/01 A2984 RMK A01 T01690014  RH  035%=      5-min Rain = 0
KPA1 162336Z 19012KT 17/01 A2984 RMK A01 T01690014  RH  035%=      5-min Rain = 0
KPA1 162337Z 19012KT 17/01 A2984 RMK A01 T01680014  RH  035%=      5-min Rain = 0
KPA1 162338Z 19012KT 17/01 A2984 RMK A01 T01680013  RH  035%=      5-min Rain = 0
KPA1 162339Z 19011KT 17/01 A2984 RMK A01 T01670014  RH  036%=      5-min Rain = 0
KPA1 162340Z 19011KT 17/02 A2984 RMK A01 T01660017  RH  037%=      5-min Rain = 0
KPA1 162341Z 20011KT 17/02 A2984 RMK A01 T01650018  RH  037%=      5-min Rain = 0
KPA1 162342Z 20010KT 17/02 A2984 RMK A01 T01650018  RH  037%=      5-min Rain = 0
KPA1 162343Z 20010KT 16/02 A2984 RMK A01 T01640018  RH  037%=      5-min Rain = 0
KPA1 162344Z 20010KT 16/02 A2984 RMK A01 T01630020  RH  038%=      5-min Rain = 0
KPA1 162345Z 20011KT 16/02 A2984 RMK A01 T01620020  RH  038%=      5-min Rain = 0
KPA1 162346Z 20012KT 16/02 A2984 RMK A01 T01610017  RH  038%=      5-min Rain = 0
KPA1 162347Z 20011KT 16/02 A2984 RMK A01 T01610018  RH  038%=      5-min Rain = 0
KPA1 162348Z 20011KT 16/02 A2984 RMK A01 T01600017  RH  038%=      5-min Rain = 0
KPA1 162349Z 20012KT 16/02 A2984 RMK A01 T01590019  RH  039%=      5-min Rain = 0
KPA1 162350Z 19011KT 16/02 A2984 RMK A01 T01590018  RH  039%=      5-min Rain = 0
KPA1 162351Z 19011KT 16/02 A2984 RMK A01 T01570019  RH  039%=      5-min Rain = 0
KPA1 162352Z 19010KT 16/02 A2984 RMK A01 T01560020  RH  040%=      5-min Rain = 0
KPA1 162353Z 19011KT 16/02 A2984 RMK A01 T01550021  RH  040%=      5-min Rain = 0
KPA1 162354Z 19012KT 15/02 A2984 RMK A01 T01540019  RH  040%=      5-min Rain = 0
KPA1 162355Z 19012KT 15/02 A2984 RMK A01 T01540017  RH  040%=      5-min Rain = 0
KPA1 162356Z 19012KT 15/02 A2984 RMK A01 T01540018  RH  040%=      5-min Rain = 0
KPA1 162357Z 19012KT 15/02 A2984 RMK A01 T01530018  RH  040%=      5-min Rain = 0
KPA1 162358Z 19012KT 15/02 A2984 RMK A01 T01520017  RH  040%=      5-min Rain = 0
KPA1 162359Z 20011KT 15/02 A2984 RMK A01 T01520017  RH  040%=      5-min Rain = 0
KPA1 170000Z 19012KT 15/02 A2984 RMK A01 T01500018  RH  041%=      5-min Rain = 0
KPA1 170001Z 20012KT 15/02 A2984 RMK A01 T01490017  RH  041%=      5-min Rain = 0
KPA1 170002Z 19012KT 15/02 A2984 RMK A01 T01480016  RH  041%=      5-min Rain = 0
KPA1 170003Z 20012KT 15/02 A2984 RMK A01 T01480016  RH  041%=      5-min Rain = 0
KPA1 170004Z 20012KT 15/02 A2984 RMK A01 T01470016  RH  041%=      5-min Rain = 0
KPA1 170005Z 19011KT 15/02 A2984 RMK A01 T01460015  RH  041%=      5-min Rain = 0
KPA1 170006Z 20011KT 14/02 A2984 RMK A01 T01440016  RH  042%=      5-min Rain = 0
KPA1 170007Z 19011KT 14/02 A2984 RMK A01 T01430016  RH  042%=      5-min Rain = 0
KPA1 170008Z 20011KT 14/02 A2984 RMK A01 T01420016  RH  042%=      5-min Rain = 0
KPA1 170009Z 19011KT 14/02 A2984 RMK A01 T01410016  RH  043%=      5-min Rain = 0
KPA1 170010Z 19011KT 14/02 A2984 RMK A01 T01400016  RH  043%=      5-min Rain = 0
KPA1 170011Z 19010KT 14/02 A2984 RMK A01 T01380016  RH  043%=      5-min Rain = 0
KPA1 170012Z 19011KT 14/02 A2984 RMK A01 T01370016  RH  044%=      5-min Rain = 0
KPA1 170013Z 19011KT 14/02 A2984 RMK A01 T01360016  RH  044%=      5-min Rain = 0
KPA1 170014Z 19011KT 14/02 A2984 RMK A01 T01350015  RH  044%=      5-min Rain = 0
KPA1 170015Z 20010KT 13/02 A2984 RMK A01 T01340015  RH  044%=      5-min Rain = 0
KPA1 170016Z 20010KT 13/02 A2984 RMK A01 T01330015  RH  045%=      5-min Rain = 0
KPA1 170017Z 19010KT 13/02 A2984 RMK A01 T01320016  RH  045%=      5-min Rain = 0
KPA1 170018Z 19010KT 13/02 A2984 RMK A01 T01300015  RH  045%=      5-min Rain = 0
KPA1 170019Z 20011KT 13/02 A2984 RMK A01 T01290015  RH  046%=      5-min Rain = 0
KPA1 170020Z 19010KT 13/02 A2984 RMK A01 T01290015  RH  046%=      5-min Rain = 0
KPA1 170021Z 19010KT 13/02 A2984 RMK A01 T01280015  RH  046%=      5-min Rain = 0
KPA1 170022Z 19010KT 13/01 A2984 RMK A01 T01260014  RH  046%=      5-min Rain = 0
KPA1 170023Z 19010KT 12/01 A2984 RMK A01 T01240014  RH  047%=      5-min Rain = 0
KPA1 170024Z 19010KT 12/01 A2984 RMK A01 T01220014  RH  048%=      5-min Rain = 0
KPA1 170025Z 19010KT 12/02 A2984 RMK A01 T01210015  RH  048%=      5-min Rain = 0
KPA1 170026Z 20010KT 12/02 A2984 RMK A01 T01190015  RH  049%=      5-min Rain = 0
KPA1 170027Z 20010KT 12/02 A2984 RMK A01 T01170015  RH  050%=      5-min Rain = 0
KPA1 170028Z 20010KT 12/02 A2984 RMK A01 T01160015  RH  050%=      5-min Rain = 0
KPA1 170029Z 20011KT 12/02 A2984 RMK A01 T01150015  RH  050%=      5-min Rain = 0
KPA1 170030Z 20011KT 12/02 A2984 RMK A01 T01150015  RH  050%=      5-min Rain = 0
KPA1 170031Z 19011KT 12/01 A2984 RMK A01 T01150014  RH  050%=      5-min Rain = 0
KPA1 170032Z 19011KT 12/01 A2984 RMK A01 T01150014  RH  050%=      5-min Rain = 0
KPA1 170033Z 19010KT 11/02 A2984 RMK A01 T01140015  RH  050%=      5-min Rain = 0
KPA1 170034Z 19011KT 11/02 A2984 RMK A01 T01130015  RH  051%=      5-min Rain = 0
KPA1 170035Z 19011KT 11/01 A2984 RMK A01 T01130014  RH  051%=      5-min Rain = 0
KPA1 170036Z 19010KT 11/01 A2984 RMK A01 T01130014  RH  050%=      5-min Rain = 0
KPA1 170037Z 19011KT 11/01 A2984 RMK A01 T01130014  RH  050%=      5-min Rain = 0
KPA1 170038Z 19011KT 11/01 A2984 RMK A01 T01130014  RH  051%=      5-min Rain = 0
KPA1 170039Z 19011KT 11/01 A2984 RMK A01 T01120014  RH  051%=      5-min Rain = 0
KPA1 170040Z 19011KT 11/01 A2984 RMK A01 T01120014  RH  051%=      5-min Rain = 0
KPA1 170041Z 20011KT 11/01 A2984 RMK A01 T01110014  RH  051%=      5-min Rain = 0
KPA1 170042Z 19011KT 11/01 A2984 RMK A01 T01100014  RH  051%=      5-min Rain = 0
KPA1 170043Z 20011KT 11/01 A2984 RMK A01 T01100013  RH  051%=      5-min Rain = 0
KPA1 170044Z 19011KT 11/01 A2984 RMK A01 T01090014  RH  052%=      5-min Rain = 0
KPA1 170045Z 20011KT 11/01 A2985 RMK A01 T01080014  RH  052%=      5-min Rain = 0
KPA1 170046Z 20011KT 11/01 A2985 RMK A01 T01080014  RH  052%=      5-min Rain = 0
KPA1 170047Z 19011KT 11/01 A2985 RMK A01 T01070014  RH  052%=      5-min Rain = 0
KPA1 170048Z 20011KT 11/01 A2985 RMK A01 T01070013  RH  052%=      5-min Rain = 0
KPA1 170049Z 20011KT 11/01 A2985 RMK A01 T01060014  RH  053%=      5-min Rain = 0
KPA1 170050Z 19011KT 11/01 A2985 RMK A01 T01060014  RH  053%=      5-min Rain = 0
KPA1 170051Z 20011KT 11/01 A2985 RMK A01 T01050013  RH  053%=      5-min Rain = 0
KPA1 170052Z 20011KT 10/01 A2985 RMK A01 T01040013  RH  053%=      5-min Rain = 0
KPA1 170053Z 20010KT 10/01 A2985 RMK A01 T01030013  RH  054%=      5-min Rain = 0
KPA1 170054Z 19010KT 10/01 A2985 RMK A01 T01020013  RH  054%=      5-min Rain = 0
KPA1 170055Z 20010KT 10/01 A2985 RMK A01 T01010013  RH  055%=      5-min Rain = 0
KPA1 170056Z 19010KT 10/01 A2985 RMK A01 T01000013  RH  055%=      5-min Rain = 0
KPA1 170057Z 19010KT 10/01 A2985 RMK A01 T00980013  RH  055%=      5-min Rain = 0
KPA1 170058Z 19010KT 10/01 A2985 RMK A01 T00970013  RH  056%=      5-min Rain = 0
KPA1 170059Z 19009KT 10/01 A2985 RMK A01 T00960013  RH  057%=      5-min Rain = 0
KPA1 170100Z 19009KT 09/01 A2985 RMK A01 T00940014  RH  057%=      5-min Rain = 0
KPA1 170101Z 19010KT 09/01 A2985 RMK A01 T00920014  RH  058%=      5-min Rain = 0
KPA1 170102Z 19009KT 09/02 A2985 RMK A01 T00910015  RH  059%=      5-min Rain = 0
KPA1 170103Z 19009KT 09/02 A2985 RMK A01 T00900015  RH  059%=      5-min Rain = 0
KPA1 170104Z 19010KT 09/02 A2985 RMK A01 T00890015  RH  060%=      5-min Rain = 0
KPA1 170105Z 19009KT 09/02 A2985 RMK A01 T00890015  RH  060%=      5-min Rain = 0
KPA1 170106Z 19009KT 09/02 A2985 RMK A01 T00880015  RH  060%=      5-min Rain = 0
KPA1 170107Z 19009KT 09/02 A2985 RMK A01 T00870015  RH  061%=      5-min Rain = 0
KPA1 170108Z 19008KT 09/02 A2984 RMK A01 T00860015  RH  061%=      5-min Rain = 0
KPA1 170109Z 19007KT 09/02 A2984 RMK A01 T00850015  RH  061%=      5-min Rain = 0
KPA1 170110Z 19008KT 08/01 A2985 RMK A01 T00840014  RH  061%=      5-min Rain = 0
KPA1 170111Z 19007KT 08/01 A2984 RMK A01 T00820013  RH  062%=      5-min Rain = 0
KPA1 170112Z 19008KT 08/01 A2984 RMK A01 T00800013  RH  062%=      5-min Rain = 0
KPA1 170113Z 19007KT 08/01 A2984 RMK A01 T00790012  RH  063%=      5-min Rain = 0
KPA1 170114Z 19007KT 08/01 A2984 RMK A01 T00780012  RH  063%=      5-min Rain = 0
KPA1 170115Z 19007KT 08/01 A2984 RMK A01 T00760012  RH  064%=      5-min Rain = 0
KPA1 170116Z 19008KT 08/01 A2984 RMK A01 T00750012  RH  064%=      5-min Rain = 0
KPA1 170117Z 19008KT 07/01 A2985 RMK A01 T00740012  RH  065%=      5-min Rain = 0
KPA1 170118Z 19008KT 07/01 A2985 RMK A01 T00730011  RH  065%=      5-min Rain = 0
KPA1 170119Z 19007KT 07/01 A2984 RMK A01 T00710011  RH  066%=      5-min Rain = 0
KPA1 170120Z 19007KT 07/01 A2984 RMK A01 T00710011  RH  066%=      5-min Rain = 0
KPA1 170121Z 19007KT 07/01 A2984 RMK A01 T00690010  RH  066%=      5-min Rain = 0
KPA1 170122Z 19007KT 07/01 A2984 RMK A01 T00690010  RH  066%=      5-min Rain = 0
KPA1 170123Z 19006KT 07/01 A2984 RMK A01 T00680009  RH  066%=      5-min Rain = 0
KPA1 170124Z 19006KT 07/01 A2984 RMK A01 T00650007  RH  066%=      5-min Rain = 0
KPA1 170125Z 19006KT 06/01 A2984 RMK A01 T00630006  RH  067%=      5-min Rain = 0
KPA1 170126Z 19006KT 06/00 A2984 RMK A01 T00610003  RH  066%=      5-min Rain = 0
KPA1 170127Z 19005KT 06/00 A2984 RMK A01 T00580001  RH  067%=      5-min Rain = 0
KPA1 170128Z 19005KT 06/00 A2984 RMK A01 T00550000  RH  068%=      5-min Rain = 0
KPA1 170129Z 20005KT 05/00 A2984 RMK A01 T00540001  RH  069%=      5-min Rain = 0
KPA1 170130Z 20004KT 05/00 A2984 RMK A01 T00530002  RH  070%=      5-min Rain = 0
KPA1 170131Z 20004KT 05/00 A2984 RMK A01 T00530004  RH  071%=      5-min Rain = 0
KPA1 170132Z 20005KT 05/01 A2984 RMK A01 T00530007  RH  072%=      5-min Rain = 0
KPA1 170133Z 20005KT 05/01 A2984 RMK A01 T00520008  RH  073%=      5-min Rain = 0
KPA1 170134Z 20005KT 05/01 A2984 RMK A01 T00520007  RH  073%=      5-min Rain = 0
KPA1 170135Z 20005KT 05/01 A2984 RMK A01 T00510008  RH  074%=      5-min Rain = 0
KPA1 170136Z 20005KT 05/01 A2984 RMK A01 T00510009  RH  074%=      5-min Rain = 0
KPA1 170137Z 20006KT 05/01 A2984 RMK A01 T00500009  RH  075%=      5-min Rain = 0
KPA1 170138Z 19006KT 05/01 A2984 RMK A01 T00490009  RH  075%=      5-min Rain = 0
KPA1 170139Z 19006KT 05/01 A2984 RMK A01 T00500009  RH  075%=      5-min Rain = 0
KPA1 170140Z 19005KT 05/01 A2984 RMK A01 T00490007  RH  074%=      5-min Rain = 0
KPA1 170141Z 19004KT 05/01 A2984 RMK A01 T00480006  RH  074%=      5-min Rain = 0
KPA1 170142Z 19003KT 05/00 A2984 RMK A01 T00470003  RH  073%=      5-min Rain = 0
KPA1 170143Z 18003KT 04/00 A2984 RMK A01 T004400-0  RH  073%=      5-min Rain = 0
KPA1 170144Z 18004KT 04/00 A2984 RMK A01 T00410000  RH  075%=      5-min Rain = 0
KPA1 170145Z 19006KT 04/00 A2984 RMK A01 T00400000  RH  075%=      5-min Rain = 0
KPA1 170146Z 19007KT 04/00 A2984 RMK A01 T00390000  RH  076%=      5-min Rain = 0
KPA1 170147Z 19007KT 04/00 A2984 RMK A01 T00380002  RH  077%=      5-min Rain = 0
KPA1 170148Z 18006KT 04/00 A2984 RMK A01 T00380003  RH  077%=      5-min Rain = 0
KPA1 170149Z 19006KT 04/00 A2984 RMK A01 T00380002  RH  077%=      5-min Rain = 0
KPA1 170150Z 19006KT 04/00 A2984 RMK A01 T00380002  RH  078%=      5-min Rain = 0
KPA1 170151Z 19006KT 04/00 A2984 RMK A01 T00370003  RH  078%=      5-min Rain = 0
KPA1 170152Z 18005KT 04/00 A2984 RMK A01 T00380003  RH  078%=      5-min Rain = 0
KPA1 170153Z 19005KT 04/00 A2984 RMK A01 T00370003  RH  078%=      5-min Rain = 0
KPA1 170154Z 19006KT 04/00 A2984 RMK A01 T00380003  RH  078%=      5-min Rain = 0
KPA1 170155Z 19006KT 04/00 A2984 RMK A01 T00370003  RH  078%=      5-min Rain = 0
KPA1 170156Z 19006KT 04/00 A2984 RMK A01 T00370003  RH  078%=      5-min Rain = 0
KPA1 170157Z 19006KT 04/00 A2984 RMK A01 T00370003  RH  079%=      5-min Rain = 0
KPA1 170158Z 19006KT 04/00 A2984 RMK A01 T00360003  RH  079%=      5-min Rain = 0
KPA1 170159Z 19006KT 04/00 A2985 RMK A01 T00370003  RH  078%=      5-min Rain = 0
KPA1 170200Z 19006KT 04/00 A2985 RMK A01 T00370002  RH  078%=      5-min Rain = 0
KPA1 170201Z 19007KT 04/00 A2985 RMK A01 T00370002  RH  078%=      5-min Rain = 0
KPA1 170202Z 19007KT 04/00 A2985 RMK A01 T00370003  RH  078%=      5-min Rain = 0
KPA1 170203Z 19007KT 04/00 A2985 RMK A01 T00360002  RH  078%=      5-min Rain = 0
KPA1 170204Z 19007KT 04/00 A2985 RMK A01 T00360002  RH  078%=      5-min Rain = 0
KPA1 170205Z 18006KT 04/00 A2984 RMK A01 T00360002  RH  078%=      5-min Rain = 0
KPA1 170206Z 18006KT 04/00 A2984 RMK A01 T00350002  RH  079%=      5-min Rain = 0
KPA1 170207Z 18006KT 04/00 A2984 RMK A01 T00350002  RH  079%=      5-min Rain = 0
KPA1 170208Z 19006KT 04/00 A2984 RMK A01 T00350002  RH  079%=      5-min Rain = 0
KPA1 170209Z 19006KT 04/00 A2984 RMK A01 T00350003  RH  079%=      5-min Rain = 0
KPA1 170210Z 19006KT 04/00 A2984 RMK A01 T00350002  RH  079%=      5-min Rain = 0
KPA1 170211Z 19005KT 03/00 A2984 RMK A01 T00340001  RH  079%=      5-min Rain = 0
KPA1 170212Z 19004KT 03/00 A2984 RMK A01 T00330001  RH  079%=      5-min Rain = 0
KPA1 170213Z 19004KT 03/00 A2984 RMK A01 T00330002  RH  080%=      5-min Rain = 0
KPA1 170214Z 19004KT 03/00 A2984 RMK A01 T00330002  RH  080%=      5-min Rain = 0
KPA1 170215Z 19004KT 03/00 A2984 RMK A01 T00330003  RH  081%=      5-min Rain = 0
KPA1 170216Z 19004KT 03/01 A2984 RMK A01 T00340005  RH  081%=      5-min Rain = 0
KPA1 170217Z 19004KT 04/01 A2984 RMK A01 T00350006  RH  081%=      5-min Rain = 0
KPA1 170218Z 19004KT 04/01 A2984 RMK A01 T00350007  RH  082%=      5-min Rain = 0
KPA1 170219Z 19004KT 04/01 A2984 RMK A01 T00350007  RH  082%=      5-min Rain = 0
KPA1 170220Z 18004KT 04/01 A2984 RMK A01 T00350007  RH  082%=      5-min Rain = 0
KPA1 170221Z 18004KT 04/01 A2984 RMK A01 T00350007  RH  082%=      5-min Rain = 0
KPA1 170222Z 19004KT 04/01 A2984 RMK A01 T00350006  RH  082%=      5-min Rain = 0
KPA1 170223Z 19005KT 03/01 A2984 RMK A01 T00340006  RH  082%=      5-min Rain = 0
KPA1 170224Z 19004KT 03/01 A2984 RMK A01 T00340006  RH  082%=      5-min Rain = 0
KPA1 170225Z 19004KT 03/01 A2984 RMK A01 T00340006  RH  082%=      5-min Rain = 0
KPA1 170226Z 19003KT 03/01 A2984 RMK A01 T00340005  RH  082%=      5-min Rain = 0
KPA1 170227Z 19003KT 03/01 A2984 RMK A01 T00330005  RH  082%=      5-min Rain = 0
KPA1 170228Z 19004KT 03/00 A2984 RMK A01 T00320004  RH  082%=      5-min Rain = 0
KPA1 170229Z 19004KT 03/00 A2984 RMK A01 T00310004  RH  082%=      5-min Rain = 0
KPA1 170230Z 19003KT 03/00 A2984 RMK A01 T00310003  RH  082%=      5-min Rain = 0
KPA1 170231Z 19003KT 03/00 A2984 RMK A01 T00300003  RH  082%=      5-min Rain = 0
KPA1 170232Z 20003KT 03/00 A2984 RMK A01 T00290002  RH  083%=      5-min Rain = 0
KPA1 170233Z 20003KT 03/00 A2984 RMK A01 T00280003  RH  083%=      5-min Rain = 0
KPA1 170234Z 20003KT 03/00 A2984 RMK A01 T00280003  RH  084%=      5-min Rain = 0
KPA1 170235Z 19003KT 03/00 A2984 RMK A01 T00280004  RH  084%=      5-min Rain = 0
KPA1 170236Z 19003KT 03/00 A2984 RMK A01 T00270004  RH  084%=      5-min Rain = 0
KPA1 170237Z 19004KT 03/00 A2984 RMK A01 T00270004  RH  085%=      5-min Rain = 0
KPA1 170238Z 18004KT 03/00 A2984 RMK A01 T00260002  RH  084%=      5-min Rain = 0
KPA1 170239Z 18004KT 03/00 A2984 RMK A01 T00260000  RH  083%=      5-min Rain = 0
KPA1 170240Z 18004KT 03/M00 A2984 RMK A01 T00251001  RH  083%=      5-min Rain = 0
KPA1 170241Z 17005KT 02/M00 A2984 RMK A01 T00241002  RH  083%=      5-min Rain = 0
KPA1 170242Z 18006KT 02/M00 A2984 RMK A01 T00231004  RH  083%=      5-min Rain = 0
KPA1 170243Z 18005KT 02/M01 A2984 RMK A01 T00221005  RH  083%=      5-min Rain = 0
KPA1 170244Z 19005KT 02/M01 A2984 RMK A01 T00211005  RH  083%=      5-min Rain = 0
KPA1 170245Z 20004KT 02/M01 A2984 RMK A01 T00211005  RH  083%=      5-min Rain = 0
KPA1 170246Z 20005KT 02/M00 A2984 RMK A01 T00211003  RH  084%=      5-min Rain = 0
KPA1 170247Z 20005KT 02/M00 A2984 RMK A01 T00231001  RH  084%=      5-min Rain = 0
KPA1 170248Z 20004KT 03/00 A2984 RMK A01 T00250001  RH  084%=      5-min Rain = 0
KPA1 170249Z 21004KT 03/00 A2984 RMK A01 T00260002  RH  084%=      5-min Rain = 0
KPA1 170250Z 21004KT 03/00 A2984 RMK A01 T00280003  RH  083%=      5-min Rain = 0
KPA1 170251Z 20003KT 03/00 A2984 RMK A01 T00300002  RH  082%=      5-min Rain = 0
KPA1 170252Z 20002KT 03/00 A2984 RMK A01 T00300000  RH  081%=      5-min Rain = 0
KPA1 170253Z 19003KT 03/M00 A2984 RMK A01 T00291001  RH  081%=      5-min Rain = 0
KPA1 170254Z 20002KT 03/M00 A2984 RMK A01 T00281002  RH  081%=      5-min Rain = 0
KPA1 170255Z 19002KT 03/M00 A2984 RMK A01 T00281001  RH  081%=      5-min Rain = 0
KPA1 170256Z 20002KT 03/M00 A2984 RMK A01 T00271003  RH  081%=      5-min Rain = 0
KPA1 170257Z 19003KT 03/M00 A2984 RMK A01 T00261004  RH  081%=      5-min Rain = 0
KPA1 170258Z 19003KT 03/M00 A2984 RMK A01 T00261003  RH  081%=      5-min Rain = 0
KPA1 170259Z 19003KT 03/M00 A2984 RMK A01 T00271002  RH  081%=      5-min Rain = 0
KPA1 170300Z 19004KT 03/M00 A2984 RMK A01 T00281002  RH  081%=      5-min Rain = 0
KPA1 170301Z 18005KT 03/M00 A2984 RMK A01 T00281002  RH  081%=      5-min Rain = 0
KPA1 170302Z 18005KT 03/M00 A2984 RMK A01 T00281003  RH  080%=      5-min Rain = 0
KPA1 170303Z 19006KT 03/M00 A2984 RMK A01 T00281003  RH  080%=      5-min Rain = 0
KPA1 170304Z 19006KT 03/M00 A2984 RMK A01 T00291002  RH  080%=      5-min Rain = 0
KPA1 170305Z 19006KT 03/00 A2984 RMK A01 T003100-0  RH  080%=      5-min Rain = 0
KPA1 170306Z 19006KT 03/00 A2984 RMK A01 T00340003  RH  080%=      5-min Rain = 0
KPA1 170307Z 19005KT 04/01 A2984 RMK A01 T00370005  RH  079%=      5-min Rain = 0
KPA1 170308Z 19005KT 04/01 A2984 RMK A01 T00390005  RH  078%=      5-min Rain = 0
KPA1 170309Z 19005KT 04/00 A2984 RMK A01 T00380001  RH  077%=      5-min Rain = 0
KPA1 170310Z 19004KT 03/M00 A2984 RMK A01 T00341003  RH  076%=      5-min Rain = 0
KPA1 170311Z 20004KT 03/M01 A2984 RMK A01 T00311005  RH  077%=      5-min Rain = 0
KPA1 170312Z 20004KT 03/M00 A2984 RMK A01 T00291004  RH  079%=      5-min Rain = 0
KPA1 170313Z 19005KT 03/M00 A2984 RMK A01 T00281003  RH  080%=      5-min Rain = 0
KPA1 170314Z 19005KT 03/M00 A2984 RMK A01 T00281001  RH  081%=      5-min Rain = 0
KPA1 170315Z 18006KT 03/00 A2984 RMK A01 T00290000  RH  081%=      5-min Rain = 0
KPA1 170316Z 19006KT 03/00 A2984 RMK A01 T00310001  RH  081%=      5-min Rain = 0
KPA1 170317Z 19006KT 03/00 A2984 RMK A01 T00320001  RH  080%=      5-min Rain = 0
KPA1 170318Z 19006KT 03/00 A2984 RMK A01 T00330001  RH  079%=      5-min Rain = 0
KPA1 170319Z 19006KT 03/00 A2984 RMK A01 T003400-0  RH  078%=      5-min Rain = 0
KPA1 170320Z 19006KT 03/M00 A2984 RMK A01 T00321002  RH  078%=      5-min Rain = 0
KPA1 170321Z 19006KT 03/M00 A2984 RMK A01 T00311003  RH  078%=      5-min Rain = 0
KPA1 170322Z 19006KT 03/M00 A2984 RMK A01 T00321002  RH  078%=      5-min Rain = 0
KPA1 170323Z 19005KT 03/M00 A2984 RMK A01 T00321003  RH  078%=      5-min Rain = 0
KPA1 170324Z 20005KT 03/M00 A2984 RMK A01 T00311003  RH  079%=      5-min Rain = 0
KPA1 170325Z 19005KT 03/M00 A2984 RMK A01 T00291004  RH  079%=      5-min Rain = 0
KPA1 170326Z 19006KT 03/M00 A2984 RMK A01 T00281003  RH  080%=      5-min Rain = 0
KPA1 170327Z 19005KT 03/M00 A2984 RMK A01 T00281003  RH  080%=      5-min Rain = 0
KPA1 170328Z 20005KT 03/M00 A2984 RMK A01 T00271003  RH  080%=      5-min Rain = 0
KPA1 170329Z 20005KT 03/M00 A2984 RMK A01 T00261004  RH  081%=      5-min Rain = 0
KPA1 170330Z 19005KT 02/M01 A2984 RMK A01 T00241005  RH  081%=      5-min Rain = 0
KPA1 170331Z 20005KT 02/M00 A2984 RMK A01 T00241004  RH  082%=      5-min Rain = 0
KPA1 170332Z 19005KT 02/M00 A2984 RMK A01 T00241003  RH  082%=      5-min Rain = 0
KPA1 170333Z 20005KT 02/M00 A2984 RMK A01 T00241003  RH  082%=      5-min Rain = 0
KPA1 170334Z 20005KT 02/M00 A2984 RMK A01 T00241003  RH  082%=      5-min Rain = 0
KPA1 170335Z 20005KT 02/M00 A2984 RMK A01 T00241003  RH  082%=      5-min Rain = 0
KPA1 170336Z 20005KT 02/M00 A2984 RMK A01 T00241003  RH  082%=      5-min Rain = 0
KPA1 170337Z 20005KT 02/M00 A2984 RMK A01 T00241004  RH  082%=      5-min Rain = 0
KPA1 170338Z 20005KT 02/M00 A2984 RMK A01 T00241004  RH  082%=      5-min Rain = 0
KPA1 170339Z 21005KT 02/M00 A2984 RMK A01 T00241004  RH  082%=      5-min Rain = 0
KPA1 170340Z 20006KT 02/M01 A2984 RMK A01 T00231005  RH  082%=      5-min Rain = 0
KPA1 170341Z 19006KT 02/M00 A2984 RMK A01 T00231004  RH  082%=      5-min Rain = 0
KPA1 170342Z 19006KT 02/M01 A2984 RMK A01 T00231005  RH  082%=      5-min Rain = 0
KPA1 170343Z 19006KT 02/M01 A2984 RMK A01 T00221006  RH  082%=      5-min Rain = 0
KPA1 170344Z 20005KT 02/M01 A2984 RMK A01 T00221006  RH  082%=      5-min Rain = 0
KPA1 170345Z 21004KT 02/M01 A2984 RMK A01 T00211006  RH  082%=      5-min Rain = 0
KPA1 170346Z 21004KT 02/M01 A2984 RMK A01 T00211006  RH  083%=      5-min Rain = 0
KPA1 170347Z 20005KT 02/M01 A2984 RMK A01 T00211005  RH  083%=      5-min Rain = 0
KPA1 170348Z 19005KT 02/M00 A2984 RMK A01 T00221004  RH  083%=      5-min Rain = 0
KPA1 170349Z 19006KT 02/M00 A2984 RMK A01 T00231004  RH  083%=      5-min Rain = 0
KPA1 170350Z 19006KT 02/M00 A2984 RMK A01 T00231004  RH  082%=      5-min Rain = 0
KPA1 170351Z 18005KT 02/M01 A2984 RMK A01 T00241005  RH  081%=      5-min Rain = 0
KPA1 170352Z 18005KT 02/M01 A2984 RMK A01 T00241006  RH  081%=      5-min Rain = 0
KPA1 170353Z 18005KT 02/M01 A2984 RMK A01 T00221007  RH  081%=      5-min Rain = 0
KPA1 170354Z 19005KT 02/M01 A2984 RMK A01 T00211008  RH  081%=      5-min Rain = 0
KPA1 170355Z 19004KT 02/M01 A2984 RMK A01 T00211008  RH  081%=      5-min Rain = 0
KPA1 170356Z 19003KT 02/M01 A2984 RMK A01 T00211008  RH  082%=      5-min Rain = 0
KPA1 170357Z 19003KT 02/M01 A2984 RMK A01 T00201008  RH  082%=      5-min Rain = 0
KPA1 170358Z 20003KT 02/M01 A2984 RMK A01 T00201007  RH  082%=      5-min Rain = 0
KPA1 170359Z 20004KT 02/M01 A2984 RMK A01 T00211007  RH  082%=      5-min Rain = 0
KPA1 170400Z 20005KT 02/M01 A2984 RMK A01 T00221006  RH  082%=      5-min Rain = 0
KPA1 170401Z 20005KT 02/M01 A2984 RMK A01 T00231006  RH  081%=      5-min Rain = 0
KPA1 170402Z 21005KT 02/M01 A2984 RMK A01 T00221007  RH  081%=      5-min Rain = 0
KPA1 170403Z 21005KT 02/M01 A2984 RMK A01 T00221006  RH  082%=      5-min Rain = 0
KPA1 170404Z 21006KT 02/M00 A2984 RMK A01 T00241004  RH  082%=      5-min Rain = 0
KPA1 170405Z 21006KT 03/M00 A2984 RMK A01 T00251003  RH  082%=      5-min Rain = 0
KPA1 170406Z 21007KT 03/M00 A2984 RMK A01 T00261003  RH  081%=      5-min Rain = 0
KPA1 170407Z 21007KT 03/M00 A2984 RMK A01 T00271003  RH  081%=      5-min Rain = 0
KPA1 170408Z 20007KT 03/M00 A2984 RMK A01 T00261003  RH  081%=      5-min Rain = 0
KPA1 170409Z 20007KT 03/M00 A2984 RMK A01 T00261004  RH  081%=      5-min Rain = 0
KPA1 170410Z 20007KT 03/M00 A2983 RMK A01 T00251004  RH  081%=      5-min Rain = 0
KPA1 170411Z 20007KT 03/M00 A2983 RMK A01 T00251004  RH  081%=      5-min Rain = 0
KPA1 170412Z 20007KT 03/M00 A2983 RMK A01 T00251004  RH  082%=      5-min Rain = 0
KPA1 170413Z 20007KT 03/M00 A2983 RMK A01 T00251003  RH  082%=      5-min Rain = 0
KPA1 170414Z 20007KT 03/M00 A2983 RMK A01 T00251003  RH  082%=      5-min Rain = 0
KPA1 170415Z 20007KT 02/M00 A2983 RMK A01 T00241004  RH  082%=      5-min Rain = 0
KPA1 170416Z 20007KT 02/M00 A2983 RMK A01 T00241004  RH  082%=      5-min Rain = 0
KPA1 170417Z 20006KT 02/M01 A2983 RMK A01 T00231005  RH  082%=      5-min Rain = 0
KPA1 170418Z 20006KT 02/M01 A2983 RMK A01 T00231005  RH  082%=      5-min Rain = 0
KPA1 170419Z 21006KT 02/M01 A2983 RMK A01 T00231005  RH  082%=      5-min Rain = 0
KPA1 170420Z 21006KT 02/M01 A2983 RMK A01 T00221006  RH  082%=      5-min Rain = 0
KPA1 170421Z 20006KT 02/M01 A2983 RMK A01 T00201007  RH  082%=      5-min Rain = 0
KPA1 170422Z 21005KT 02/M01 A2983 RMK A01 T00191009  RH  082%=      5-min Rain = 0
KPA1 170423Z 21005KT 02/M01 A2983 RMK A01 T00171008  RH  083%=      5-min Rain = 0
KPA1 170424Z 21005KT 02/M01 A2983 RMK A01 T00171007  RH  084%=      5-min Rain = 0
KPA1 170425Z 21005KT 02/M01 A2983 RMK A01 T00161007  RH  084%=      5-min Rain = 0
KPA1 170426Z 21005KT 02/M01 A2983 RMK A01 T00161007  RH  084%=      5-min Rain = 0
KPA1 170427Z 21005KT 02/M01 A2983 RMK A01 T00161007  RH  085%=      5-min Rain = 0
KPA1 170428Z 21005KT 02/M01 A2983 RMK A01 T00161007  RH  085%=      5-min Rain = 0
KPA1 170429Z 21005KT 02/M01 A2983 RMK A01 T00161007  RH  085%=      5-min Rain = 0
KPA1 170430Z 21005KT 02/M01 A2983 RMK A01 T00161007  RH  085%=      5-min Rain = 0
KPA1 170431Z 21005KT 02/M01 A2983 RMK A01 T00161007  RH  084%=      5-min Rain = 0
KPA1 170432Z 21004KT 02/M01 A2983 RMK A01 T00171007  RH  084%=      5-min Rain = 0
KPA1 170433Z 22005KT 02/M01 A2983 RMK A01 T00171007  RH  084%=      5-min Rain = 0
KPA1 170434Z 21005KT 02/M01 A2983 RMK A01 T00181007  RH  083%=      5-min Rain = 0
KPA1 170435Z 21004KT 02/M01 A2983 RMK A01 T00201007  RH  083%=      5-min Rain = 0
KPA1 170436Z 21005KT 02/M01 A2983 RMK A01 T00201007  RH  082%=      5-min Rain = 0
KPA1 170437Z 21005KT 02/M01 A2983 RMK A01 T00201008  RH  082%=      5-min Rain = 0
KPA1 170438Z 21006KT 02/M01 A2983 RMK A01 T00201008  RH  081%=      5-min Rain = 0
KPA1 170439Z 21006KT 02/M01 A2983 RMK A01 T00211008  RH  081%=      5-min Rain = 0
KPA1 170440Z 22007KT 02/M01 A2983 RMK A01 T00211009  RH  081%=      5-min Rain = 0
KPA1 170441Z 22007KT 02/M01 A2983 RMK A01 T00211008  RH  081%=      5-min Rain = 0
KPA1 170442Z 22007KT 02/M01 A2983 RMK A01 T00231007  RH  081%=      5-min Rain = 0
KPA1 170443Z 21007KT 03/M00 A2983 RMK A01 T00251004  RH  081%=      5-min Rain = 0
KPA1 170444Z 21007KT 03/M00 A2983 RMK A01 T00281002  RH  081%=      5-min Rain = 0
KPA1 170445Z 21008KT 03/M00 A2983 RMK A01 T00301001  RH  080%=      5-min Rain = 0
KPA1 170446Z 21008KT 03/M00 A2983 RMK A01 T00311001  RH  080%=      5-min Rain = 0
KPA1 170447Z 21008KT 03/00 A2983 RMK A01 T003300-0  RH  079%=      5-min Rain = 0
KPA1 170448Z 21009KT 04/00 A2983 RMK A01 T00350001  RH  078%=      5-min Rain = 0
KPA1 170449Z 21009KT 04/00 A2983 RMK A01 T00360001  RH  078%=      5-min Rain = 0
KPA1 170450Z 21009KT 04/00 A2983 RMK A01 T00370001  RH  077%=      5-min Rain = 0
KPA1 170451Z 21010KT 04/00 A2983 RMK A01 T00390002  RH  077%=      5-min Rain = 0
KPA1 170452Z 21010KT 04/00 A2983 RMK A01 T00400002  RH  076%=      5-min Rain = 0
KPA1 170453Z 21010KT 04/00 A2982 RMK A01 T00400002  RH  076%=      5-min Rain = 0
KPA1 170454Z 21010KT 04/00 A2982 RMK A01 T00410002  RH  076%=      5-min Rain = 0
KPA1 170455Z 21010KT 04/00 A2982 RMK A01 T00410002  RH  075%=      5-min Rain = 0
KPA1 170456Z 21010KT 04/00 A2982 RMK A01 T00410002  RH  075%=      5-min Rain = 0
KPA1 170457Z 21010KT 04/00 A2982 RMK A01 T00420002  RH  075%=      5-min Rain = 0
KPA1 170458Z 21010KT 04/00 A2982 RMK A01 T00420001  RH  075%=      5-min Rain = 0
KPA1 170459Z 21009KT 04/00 A2982 RMK A01 T00410001  RH  075%=      5-min Rain = 0
KPA1 170500Z 21009KT 04/00 A2982 RMK A01 T00410001  RH  075%=      5-min Rain = 0
KPA1 170501Z 21009KT 04/00 A2982 RMK A01 T00400000  RH  075%=      5-min Rain = 0
KPA1 170502Z 21009KT 04/00 A2982 RMK A01 T003900-0  RH  075%=      5-min Rain = 0
KPA1 170503Z 21009KT 04/00 A2982 RMK A01 T003800-0  RH  076%=      5-min Rain = 0
KPA1 170504Z 21008KT 04/M00 A2982 RMK A01 T00371001  RH  076%=      5-min Rain = 0
KPA1 170505Z 21008KT 04/M00 A2982 RMK A01 T00361001  RH  076%=      5-min Rain = 0
KPA1 170506Z 21008KT 04/M00 A2982 RMK A01 T00361001  RH  077%=      5-min Rain = 0
KPA1 170507Z 21008KT 04/M00 A2982 RMK A01 T00351002  RH  077%=      5-min Rain = 0
KPA1 170508Z 21007KT 03/M00 A2982 RMK A01 T00341002  RH  077%=      5-min Rain = 0
KPA1 170509Z 21007KT 03/M00 A2982 RMK A01 T00331002  RH  077%=      5-min Rain = 0
KPA1 170510Z 21007KT 03/M00 A2982 RMK A01 T00331003  RH  078%=      5-min Rain = 0
KPA1 170511Z 21007KT 03/M00 A2982 RMK A01 T00321003  RH  078%=      5-min Rain = 0
KPA1 170512Z 21007KT 03/M00 A2982 RMK A01 T00321003  RH  078%=      5-min Rain = 0
KPA1 170513Z 21007KT 03/M00 A2982 RMK A01 T00311004  RH  078%=      5-min Rain = 0
KPA1 170514Z 21007KT 03/M00 A2982 RMK A01 T00301004  RH  078%=      5-min Rain = 0
KPA1 170515Z 21007KT 03/M00 A2982 RMK A01 T00301003  RH  079%=      5-min Rain = 0
KPA1 170516Z 21007KT 03/M00 A2982 RMK A01 T00301003  RH  079%=      5-min Rain = 0
KPA1 170517Z 21007KT 03/M00 A2982 RMK A01 T00301004  RH  079%=      5-min Rain = 0
KPA1 170518Z 21007KT 03/M00 A2982 RMK A01 T00301003  RH  079%=      5-min Rain = 0
KPA1 170519Z 21007KT 03/M00 A2982 RMK A01 T00291004  RH  079%=      5-min Rain = 0
KPA1 170520Z 21007KT 03/M01 A2982 RMK A01 T00281005  RH  079%=      5-min Rain = 0
KPA1 170521Z 21007KT 03/M01 A2982 RMK A01 T00281005  RH  079%=      5-min Rain = 0
KPA1 170522Z 21007KT 03/M01 A2982 RMK A01 T00271005  RH  079%=      5-min Rain = 0
KPA1 170523Z 21007KT 03/M01 A2982 RMK A01 T00271006  RH  079%=      5-min Rain = 0
KPA1 170524Z 21007KT 03/M01 A2982 RMK A01 T00261006  RH  080%=      5-min Rain = 0
KPA1 170525Z 21007KT 03/M01 A2982 RMK A01 T00251007  RH  080%=      5-min Rain = 0
KPA1 170526Z 21007KT 02/M01 A2982 RMK A01 T00241007  RH  080%=      5-min Rain = 0
KPA1 170527Z 21007KT 02/M01 A2982 RMK A01 T00231008  RH  080%=      5-min Rain = 0
KPA1 170528Z 21006KT 02/M01 A2982 RMK A01 T00221008  RH  081%=      5-min Rain = 0
KPA1 170529Z 21007KT 02/M01 A2982 RMK A01 T00211008  RH  081%=      5-min Rain = 0
KPA1 170530Z 21007KT 02/M01 A2981 RMK A01 T00201009  RH  081%=      5-min Rain = 0
KPA1 170531Z 21006KT 02/M01 A2981 RMK A01 T00201009  RH  081%=      5-min Rain = 0
KPA1 170532Z 21006KT 02/M01 A2981 RMK A01 T00191009  RH  082%=      5-min Rain = 0
KPA1 170533Z 21007KT 02/M01 A2981 RMK A01 T00181010  RH  082%=      5-min Rain = 0
KPA1 170534Z 21007KT 02/M01 A2981 RMK A01 T00171010  RH  082%=      5-min Rain = 0
KPA1 170535Z 21007KT 02/M01 A2981 RMK A01 T00171010  RH  082%=      5-min Rain = 0
KPA1 170536Z 21007KT 02/M01 A2981 RMK A01 T00161010  RH  083%=      5-min Rain = 0
KPA1 170537Z 21007KT 02/M01 A2981 RMK A01 T00161010  RH  083%=      5-min Rain = 0
KPA1 170538Z 21007KT 02/M01 A2981 RMK A01 T00161010  RH  083%=      5-min Rain = 0
KPA1 170539Z 21008KT 02/M01 A2981 RMK A01 T00151011  RH  083%=      5-min Rain = 0
KPA1 170540Z 21007KT 02/M01 A2981 RMK A01 T00151010  RH  083%=      5-min Rain = 0
KPA1 170541Z 21007KT 02/M01 A2981 RMK A01 T00151010  RH  084%=      5-min Rain = 0
KPA1 170542Z 21007KT 02/M01 A2981 RMK A01 T00151010  RH  084%=      5-min Rain = 0
KPA1 170543Z 21007KT 01/M01 A2981 RMK A01 T00141010  RH  084%=      5-min Rain = 0
KPA1 170544Z 21008KT 01/M01 A2981 RMK A01 T00141010  RH  084%=      5-min Rain = 0
KPA1 170545Z 21008KT 01/M01 A2981 RMK A01 T00141009  RH  084%=      5-min Rain = 0
KPA1 170546Z 21008KT 01/M01 A2981 RMK A01 T00141009  RH  084%=      5-min Rain = 0
KPA1 170547Z 21008KT 01/M01 A2981 RMK A01 T00141009  RH  085%=      5-min Rain = 0
KPA1 170548Z 21008KT 02/M01 A2981 RMK A01 T00151008  RH  085%=      5-min Rain = 0
KPA1 170549Z 20008KT 02/M01 A2981 RMK A01 T00151008  RH  085%=      5-min Rain = 0
KPA1 170550Z 20008KT 02/M01 A2981 RMK A01 T00151009  RH  085%=      5-min Rain = 0
KPA1 170551Z 20008KT 01/M01 A2981 RMK A01 T00131010  RH  085%=      5-min Rain = 0
KPA1 170552Z 20008KT 01/M01 A2981 RMK A01 T00131010  RH  085%=      5-min Rain = 0
KPA1 170553Z 20008KT 01/M01 A2981 RMK A01 T00121010  RH  085%=      5-min Rain = 0
KPA1 170554Z 20009KT 01/M01 A2981 RMK A01 T00131010  RH  085%=      5-min Rain = 0
KPA1 170555Z 20010KT 01/M01 A2981 RMK A01 T00131008  RH  085%=      5-min Rain = 0
KPA1 170556Z 19010KT 02/M01 A2981 RMK A01 T00151006  RH  086%=      5-min Rain = 0
KPA1 170557Z 19009KT 02/M01 A2981 RMK A01 T00171005  RH  085%=      5-min Rain = 0
KPA1 170558Z 19010KT 02/M01 A2981 RMK A01 T00191005  RH  085%=      5-min Rain = 0
KPA1 170559Z 19010KT 02/M00 A2981 RMK A01 T00201004  RH  084%=      5-min Rain = 0

Page generated in 0.0715 seconds.